RWD710 HRYR-EGLL

Flight info

Callsign RWD710
Flight time 9h 13m
Altitude 23000
Route ALSAR1D ALSAR L432 OKTEX/N0491F350 DCT ATUGA/N0488F360 DCT ASKON DCT ONUDA UG862 DIR UB730 RAKOM/N0487F380 UB730 DJA UM2 AMIRA/N0470F400 UM2 CSO UM998 KAMER DCT NAFOQ DCT SURJU DCT PADKO DCT MRM DCT MTL DCT ETREK DCT MADOT DCT MOPEM DCT CACHI DCT AVLON DCT OKRIX DCT BRY/N0472F360 DCT CLM DCT KOPOR DCT ABNUR DCT DIMAL DCT ALESO
Aircraft A333/H-SDE3GHIJ2J3J5M1RVWXY/LB2D1

Departure

Time 2026-04-23 12:54
Airport Kigali International Airport (HRYR)

Arrival

Time 2026-04-23 22:07
Airport London Heathrow Airport (EGLL)
Time Latitude Longitude Altitude Speed Heading
2026-04-23 12:05 -1.96452 30.13455 4895 ft 0 kts 320°
2026-04-23 12:44 -1.96457 30.13460 4906 ft 4 kts 321°
2026-04-23 12:44 -1.96479 30.13476 4895 ft 4 kts 328°
2026-04-23 12:45 -1.96503 30.13489 4895 ft 4 kts 336°
2026-04-23 12:45 -1.96528 30.13498 4899 ft 4 kts 346°
2026-04-23 12:45 -1.96553 30.13502 4900 ft 2 kts 360°
2026-04-23 12:45 -1.96576 30.13503 4897 ft 4 kts 350°
2026-04-23 12:46 -1.96601 30.13511 4896 ft 4 kts 328°
2026-04-23 12:46 -1.96619 30.13528 4896 ft 4 kts 287°
2026-04-23 12:46 -1.96622 30.13537 4896 ft 0 kts 270°
2026-04-23 12:49 -1.96621 30.13518 4896 ft 5 kts 273°
2026-04-23 12:50 -1.96613 30.13464 4896 ft 11 kts 279°
2026-04-23 12:50 -1.96598 30.13375 4903 ft 15 kts 279°
2026-04-23 12:50 -1.96579 30.13262 4900 ft 17 kts 279°
2026-04-23 12:50 -1.96561 30.13151 4898 ft 16 kts 279°
2026-04-23 12:51 -1.96560 30.13047 4902 ft 14 kts 250°
2026-04-23 12:51 -1.96621 30.12974 4900 ft 13 kts 224°
2026-04-23 12:51 -1.96676 30.12904 4897 ft 12 kts 255°
2026-04-23 12:51 -1.96667 30.12814 4904 ft 14 kts 281°
2026-04-23 12:52 -1.96648 30.12713 4896 ft 15 kts 280°
2026-04-23 12:52 -1.96628 30.12608 4904 ft 16 kts 281°
2026-04-23 12:52 -1.96627 30.12502 4904 ft 15 kts 249°
2026-04-23 12:52 -1.96641 30.12410 4902 ft 9 kts 306°
2026-04-23 12:53 -1.96621 30.12415 4902 ft 3 kts 36°
2026-04-23 12:53 -1.96608 30.12443 4900 ft 6 kts 75°
2026-04-23 12:53 -1.96610 30.12500 4900 ft 11 kts 100°
2026-04-23 12:53 -1.96637 30.12650 4899 ft 44 kts 100°
2026-04-23 12:54 -1.96724 30.13142 4897 ft 99 kts 100°
2026-04-23 12:54 -1.96872 30.13995 4899 ft 149 kts 99°
2026-04-23 12:54 -1.97003 30.14745 4914 ft 180 kts 102°
2026-04-23 12:54 -1.97224 30.16022 5564 ft 184 kts 104°
2026-04-23 12:55 -1.97497 30.17660 6793 ft 181 kts 101°
2026-04-23 12:55 -1.97728 30.18955 7101 ft 198 kts 101°
2026-04-23 12:55 -1.97896 30.19889 7248 ft 211 kts 102°
2026-04-23 12:55 -1.97965 30.21425 7480 ft 233 kts 84°
2026-04-23 12:56 -1.97308 30.22989 7623 ft 263 kts 53°
2026-04-23 12:56 -1.95744 30.24067 7869 ft 286 kts 24°
2026-04-23 12:56 -1.93894 30.24856 8360 ft 290 kts 36°
2026-04-23 12:56 -1.92380 30.26161 8942 ft 287 kts 46°
2026-04-23 12:57 -1.90951 30.27573 9570 ft 290 kts 48°
2026-04-23 12:57 -1.89541 30.29021 10140 ft 292 kts 50°
2026-04-23 12:57 -1.88099 30.30511 10450 ft 306 kts 49°
2026-04-23 12:57 -1.86577 30.32080 10678 ft 322 kts 49°
2026-04-23 12:58 -1.84996 30.33702 10883 ft 338 kts 49°
2026-04-23 12:58 -1.83317 30.35422 11089 ft 353 kts 47°
2026-04-23 12:58 -1.81564 30.37214 11293 ft 367 kts 48°
2026-04-23 12:58 -1.79751 30.39066 11577 ft 376 kts 47°
2026-04-23 12:59 -1.77905 30.40950 11979 ft 381 kts 49°
2026-04-23 12:59 -1.76037 30.42857 12421 ft 385 kts 47°
2026-04-23 12:59 -1.74163 30.44772 12978 ft 386 kts 47°
2026-04-23 12:59 -1.72282 30.46693 13521 ft 387 kts 48°
2026-04-23 13:00 -1.70392 30.48624 13979 ft 389 kts 47°
2026-04-23 13:00 -1.68518 30.50541 14416 ft 391 kts 47°
2026-04-23 13:00 -1.66607 30.52493 14753 ft 395 kts 48°
2026-04-23 13:00 -1.64675 30.54466 15218 ft 396 kts 47°
2026-04-23 13:01 -1.62738 30.56445 15572 ft 401 kts 47°
2026-04-23 13:01 -1.60781 30.58445 15999 ft 403 kts 47°
2026-04-23 13:01 -1.58815 30.60454 16402 ft 405 kts 47°
2026-04-23 13:01 -1.56832 30.62479 16829 ft 407 kts 47°
2026-04-23 13:02 -1.54845 30.64511 17191 ft 410 kts 47°
2026-04-23 13:02 -1.52867 30.66532 17590 ft 412 kts 47°
2026-04-23 13:02 -1.50856 30.68587 17937 ft 415 kts 47°
2026-04-23 13:02 -1.48828 30.70658 18322 ft 416 kts 47°
2026-04-23 13:03 -1.46793 30.72736 18621 ft 419 kts 47°
2026-04-23 13:03 -1.44756 30.74835 18928 ft 420 kts 47°
2026-04-23 13:03 -1.42750 30.76969 19212 ft 423 kts 48°
2026-04-23 13:03 -1.40751 30.79142 19501 ft 425 kts 49°
2026-04-23 13:04 -1.38754 30.81334 19770 ft 427 kts 49°
2026-04-23 13:04 -1.36776 30.83507 20088 ft 428 kts 49°
2026-04-23 13:04 -1.34763 30.85714 20350 ft 430 kts 49°
2026-04-23 13:04 -1.32738 30.87929 20650 ft 432 kts 49°
2026-04-23 13:05 -1.30701 30.90153 20910 ft 435 kts 49°
2026-04-23 13:05 -1.28649 30.92390 21178 ft 437 kts 49°
2026-04-23 13:05 -1.26585 30.94637 21442 ft 439 kts 49°
2026-04-23 13:05 -1.24513 30.96891 21711 ft 440 kts 49°
2026-04-23 13:06 -1.20368 31.01402 22268 ft 444 kts 49°
2026-04-23 13:06 -1.18272 31.03683 22512 ft 446 kts 49°
2026-04-23 13:06 -1.16164 31.05979 22778 ft 448 kts 49°
2026-04-23 13:07 -1.14047 31.08283 23004 ft 451 kts 49°
2026-04-23 13:07 -1.11920 31.10598 23280 ft 452 kts 49°
2026-04-23 13:07 -1.09789 31.12918 23527 ft 454 kts 49°
2026-04-23 13:07 -1.07646 31.15251 23732 ft 456 kts 49°
2026-04-23 13:08 -1.05522 31.17561 23947 ft 458 kts 49°
2026-04-23 13:08 -1.03207 31.19772 24136 ft 462 kts 42°
2026-04-23 13:08 -1.00596 31.21668 24344 ft 466 kts 33°
2026-04-23 13:08 -0.97695 31.23141 24570 ft 470 kts 23°
2026-04-23 13:09 -0.94559 31.24097 24809 ft 474 kts 13°
2026-04-23 13:09 -0.91303 31.24669 25037 ft 476 kts 10°
2026-04-23 13:09 -0.88004 31.25096 25242 ft 479 kts
2026-04-23 13:09 -0.84681 31.25450 25477 ft 480 kts
2026-04-23 13:10 -0.81347 31.25781 25683 ft 482 kts
2026-04-23 13:10 -0.78045 31.26111 25882 ft 483 kts
2026-04-23 13:10 -0.74693 31.26457 26108 ft 485 kts
2026-04-23 13:10 -0.71334 31.26818 26320 ft 486 kts
2026-04-23 13:11 -0.67951 31.27191 26555 ft 487 kts
2026-04-23 13:11 -0.64575 31.27569 26770 ft 489 kts
2026-04-23 13:11 -0.61184 31.27952 26906 ft 492 kts
2026-04-23 13:11 -0.57771 31.28339 27090 ft 494 kts
2026-04-23 13:12 -0.54349 31.28726 27340 ft 495 kts
2026-04-23 13:12 -0.50966 31.29107 27547 ft 496 kts
2026-04-23 13:12 -0.47516 31.29496 27801 ft 497 kts
2026-04-23 13:12 -0.44073 31.29885 27988 ft 499 kts
2026-04-23 13:13 -0.40609 31.30275 28213 ft 500 kts
2026-04-23 13:13 -0.37143 31.30665 28406 ft 502 kts
2026-04-23 13:13 -0.33667 31.31057 28612 ft 503 kts
2026-04-23 13:13 -0.30181 31.31450 28858 ft 504 kts
2026-04-23 13:14 -0.26694 31.31843 29183 ft 502 kts
2026-04-23 13:14 -0.23221 31.32235 29513 ft 501 kts
2026-04-23 13:14 -0.19756 31.32625 29823 ft 500 kts
2026-04-23 13:14 -0.16299 31.33014 30108 ft 499 kts
2026-04-23 13:15 -0.12891 31.33398 30347 ft 499 kts
2026-04-23 13:15 -0.09447 31.33787 30617 ft 497 kts
2026-04-23 13:15 -0.06007 31.34174 30881 ft 497 kts
2026-04-23 13:15 -0.02575 31.34561 31147 ft 495 kts
2026-04-23 13:16 0.00849 31.34947 31363 ft 496 kts
2026-04-23 13:16 0.04293 31.35335 31483 ft 498 kts
2026-04-23 13:16 0.07745 31.35724 31682 ft 498 kts
2026-04-23 13:16 0.11149 31.36108 31968 ft 496 kts
2026-04-23 13:17 0.14582 31.36495 32220 ft 496 kts
2026-04-23 13:17 0.18009 31.36881 32507 ft 494 kts
2026-04-23 13:17 0.21422 31.37265 32747 ft 493 kts
2026-04-23 13:17 0.24830 31.37650 32992 ft 492 kts
2026-04-23 13:18 0.28238 31.38034 33244 ft 492 kts
2026-04-23 13:18 0.31633 31.38416 33479 ft 491 kts
2026-04-23 13:18 0.35027 31.38798 33700 ft 491 kts
2026-04-23 13:18 0.38426 31.39181 33883 ft 491 kts
2026-04-23 13:19 0.41817 31.39564 34079 ft 490 kts
2026-04-23 13:19 0.45205 31.39945 34278 ft 489 kts
2026-04-23 13:19 0.48587 31.40326 34493 ft 488 kts
2026-04-23 13:19 0.51916 31.40701 34690 ft 487 kts
2026-04-23 13:20 0.55295 31.41082 34885 ft 486 kts
2026-04-23 13:20 0.58660 31.41461 35075 ft 486 kts
2026-04-23 13:20 0.62018 31.41840 35268 ft 485 kts
2026-04-23 13:20 0.65367 31.42217 35459 ft 484 kts
2026-04-23 13:21 0.68708 31.42594 35639 ft 483 kts
2026-04-23 13:21 0.72054 31.42971 35810 ft 483 kts
2026-04-23 13:21 0.75398 31.43348 35878 ft 484 kts
2026-04-23 13:22 0.82072 31.44100 35878 ft 485 kts
2026-04-23 13:22 0.88784 31.44856 35878 ft 485 kts
2026-04-23 13:23 0.95490 31.45612 35872 ft 485 kts
2026-04-23 13:23 1.02192 31.46368 35870 ft 483 kts
2026-04-23 13:24 1.08854 31.47119 35865 ft 480 kts
2026-04-23 13:24 1.15459 31.47863 35865 ft 480 kts
2026-04-23 13:25 1.22105 31.48612 35863 ft 480 kts
2026-04-23 13:25 1.28756 31.49362 35862 ft 480 kts
2026-04-23 13:26 1.35391 31.50110 35858 ft 479 kts
2026-04-23 13:26 1.41967 31.50852 35857 ft 478 kts
2026-04-23 13:27 1.48572 31.51597 35847 ft 477 kts
2026-04-23 13:27 1.55176 31.52342 35851 ft 477 kts
2026-04-23 13:28 1.61786 31.53087 35840 ft 478 kts
2026-04-23 13:28 1.68401 31.53833 35840 ft 479 kts
2026-04-23 13:29 1.75024 31.54580 35829 ft 479 kts
2026-04-23 13:29 1.81601 31.55322 35828 ft 479 kts
2026-04-23 13:30 1.88222 31.56069 35817 ft 479 kts
2026-04-23 13:30 1.94856 31.56817 35819 ft 479 kts
2026-04-23 13:31 2.01496 31.57565 35808 ft 481 kts
2026-04-23 13:31 2.08164 31.58318 35802 ft 482 kts
2026-04-23 13:32 2.14796 31.59066 35799 ft 482 kts
2026-04-23 13:32 2.21465 31.59819 35796 ft 482 kts
2026-04-23 13:33 2.28127 31.60571 35798 ft 482 kts
2026-04-23 13:33 2.34788 31.61323 35793 ft 481 kts
2026-04-23 13:34 2.41447 31.62074 35790 ft 481 kts
2026-04-23 13:34 2.48090 31.62824 35789 ft 480 kts
2026-04-23 13:35 2.54732 31.63574 35796 ft 481 kts
2026-04-23 13:35 2.61385 31.64325 35794 ft 481 kts
2026-04-23 13:36 2.67979 31.65071 35795 ft 479 kts
2026-04-23 13:36 2.74605 31.65819 35792 ft 479 kts
2026-04-23 13:37 2.81233 31.66567 35797 ft 479 kts
2026-04-23 13:37 2.87877 31.67318 35790 ft 479 kts
2026-04-23 13:38 2.94465 31.68062 35793 ft 479 kts
2026-04-23 13:38 3.01101 31.68812 35786 ft 479 kts
2026-04-23 13:39 3.07735 31.69561 35785 ft 479 kts
2026-04-23 13:39 3.14344 31.70308 35785 ft 479 kts
2026-04-23 13:40 3.20966 31.71057 35784 ft 479 kts
2026-04-23 13:40 3.27596 31.71806 35778 ft 480 kts
2026-04-23 13:41 3.34240 31.72557 35775 ft 481 kts
2026-04-23 13:41 3.40890 31.73309 35775 ft 481 kts
2026-04-23 13:42 3.47498 31.74057 35773 ft 481 kts
2026-04-23 13:42 3.54153 31.74810 35767 ft 481 kts
2026-04-23 13:43 3.60809 31.75563 35768 ft 480 kts
2026-04-23 13:43 3.67429 31.76312 35767 ft 478 kts
2026-04-23 13:44 3.72935 31.76935 35764 ft 479 kts
2026-04-23 13:44 3.79557 31.77685 35763 ft 479 kts
2026-04-23 13:45 3.86180 31.78411 35760 ft 478 kts
2026-04-23 13:45 3.92779 31.77927 35761 ft 476 kts 345°
2026-04-23 13:46 3.98806 31.75333 35762 ft 476 kts 325°
2026-04-23 13:46 4.03549 31.70774 35753 ft 474 kts 305°
2026-04-23 13:47 4.06648 31.64963 35754 ft 475 kts 294°
2026-04-23 13:47 4.09251 31.58890 35895 ft 474 kts 292°
2026-04-23 13:48 4.11812 31.52778 36224 ft 474 kts 293°
2026-04-23 13:48 4.13100 31.49742 36427 ft 473 kts 293°
2026-04-23 13:48 4.14398 31.46706 36548 ft 474 kts 293°
2026-04-23 13:48 4.15700 31.43682 36802 ft 471 kts 293°
2026-04-23 13:49 4.16996 31.40682 37108 ft 468 kts 293°
2026-04-23 13:49 4.18273 31.37727 37213 ft 469 kts 293°
2026-04-23 13:49 4.19575 31.34717 37395 ft 468 kts 293°
2026-04-23 13:49 4.20866 31.31732 37630 ft 466 kts 293°
2026-04-23 13:50 4.22153 31.28752 37753 ft 466 kts 293°
2026-04-23 13:50 4.24736 31.22769 37762 ft 469 kts 293°
2026-04-23 13:51 4.27341 31.16734 37769 ft 475 kts 293°
2026-04-23 13:51 4.29957 31.10670 37768 ft 477 kts 293°
2026-04-23 13:52 4.32591 31.04564 37769 ft 476 kts 293°
2026-04-23 13:52 4.35218 30.98472 37768 ft 476 kts 293°
2026-04-23 13:53 4.37848 30.92374 37772 ft 474 kts 292°
2026-04-23 13:53 4.40440 30.86360 37772 ft 470 kts 293°
2026-04-23 13:54 4.43036 30.80335 37775 ft 471 kts 292°
2026-04-23 13:54 4.45629 30.74316 37770 ft 470 kts 292°
2026-04-23 13:55 4.48219 30.68303 37765 ft 469 kts 292°
2026-04-23 13:55 4.50805 30.62294 37766 ft 469 kts 293°
2026-04-23 13:56 4.53384 30.56305 37761 ft 470 kts 293°
2026-04-23 13:56 4.55982 30.50268 37760 ft 471 kts 292°
2026-04-23 13:57 4.58577 30.44237 37765 ft 470 kts 293°
2026-04-23 13:57 4.61152 30.38252 37753 ft 469 kts 292°
2026-04-23 13:58 4.63728 30.32260 37758 ft 466 kts 292°
2026-04-23 13:58 4.66298 30.26281 37755 ft 466 kts 292°
2026-04-23 13:59 4.68845 30.20354 37753 ft 466 kts 292°
2026-04-23 13:59 4.71409 30.14386 37749 ft 466 kts 292°
2026-04-23 14:00 4.73544 30.09417 37753 ft 466 kts 292°
2026-04-23 14:00 4.76534 30.02449 37747 ft 465 kts 292°
2026-04-23 14:01 4.79094 29.96490 37750 ft 465 kts 292°
2026-04-23 14:01 4.81652 29.90531 37748 ft 465 kts 292°
2026-04-23 14:02 4.84208 29.84574 37748 ft 465 kts 292°
2026-04-23 14:02 4.86748 29.78653 37744 ft 464 kts 292°
2026-04-23 14:03 4.89297 29.72709 37747 ft 463 kts 292°
2026-04-23 14:03 4.91842 29.66773 37742 ft 463 kts 292°
2026-04-23 14:04 4.94389 29.60828 37741 ft 464 kts 292°
2026-04-23 14:04 4.96937 29.54882 37739 ft 463 kts 292°
2026-04-23 14:05 4.99467 29.48976 37737 ft 464 kts 292°
2026-04-23 14:05 5.02018 29.43019 37740 ft 465 kts 292°
2026-04-23 14:06 5.04573 29.37052 37746 ft 465 kts 292°
2026-04-23 14:06 5.07125 29.31088 37732 ft 465 kts 292°
2026-04-23 14:07 5.09676 29.25126 37730 ft 465 kts 292°
2026-04-23 14:07 5.13508 29.16166 37732 ft 467 kts 292°
2026-04-23 14:08 5.16071 29.10171 37723 ft 467 kts 292°
2026-04-23 14:08 5.18616 29.04216 37728 ft 467 kts 292°
2026-04-23 14:09 5.21176 28.98225 37718 ft 467 kts 292°
2026-04-23 14:09 5.23735 28.92234 37719 ft 467 kts 292°
2026-04-23 14:10 5.26293 28.86243 37720 ft 467 kts 292°
2026-04-23 14:10 5.28857 28.80237 37721 ft 467 kts 292°
2026-04-23 14:11 5.31402 28.74274 37718 ft 467 kts 291°
2026-04-23 14:11 5.33960 28.68278 37718 ft 467 kts 291°
2026-04-23 14:12 5.36515 28.62284 37714 ft 466 kts 292°
2026-04-23 14:12 5.39061 28.56315 37718 ft 464 kts 292°
2026-04-23 14:13 5.41606 28.50345 37716 ft 465 kts 292°
2026-04-23 14:13 5.44145 28.44385 37714 ft 465 kts 292°
2026-04-23 14:14 5.46687 28.38417 37718 ft 465 kts 292°
2026-04-23 14:14 5.49213 28.32485 37713 ft 465 kts 292°
2026-04-23 14:15 5.51754 28.26515 37711 ft 465 kts 292°
2026-04-23 14:15 5.54297 28.20539 37711 ft 465 kts 292°
2026-04-23 14:16 5.56843 28.14556 37707 ft 465 kts 292°
2026-04-23 14:16 5.59371 28.08610 37708 ft 465 kts 292°
2026-04-23 14:17 5.61912 28.02633 37706 ft 466 kts 292°
2026-04-23 14:17 5.64453 27.96654 37709 ft 466 kts 292°
2026-04-23 14:18 5.66999 27.90662 37705 ft 466 kts 292°
2026-04-23 14:18 5.69543 27.84671 37707 ft 466 kts 292°
2026-04-23 14:19 5.72069 27.78722 37700 ft 466 kts 292°
2026-04-23 14:19 5.74611 27.72734 37703 ft 466 kts 292°
2026-04-23 14:20 5.77151 27.66748 37705 ft 466 kts 292°
2026-04-23 14:20 5.79693 27.60753 37701 ft 466 kts 292°
2026-04-23 14:21 5.82233 27.54765 37707 ft 466 kts 292°
2026-04-23 14:21 5.84771 27.48777 37706 ft 466 kts 292°
2026-04-23 14:22 5.87308 27.42790 37707 ft 464 kts 291°
2026-04-23 14:22 5.89819 27.36863 37711 ft 463 kts 291°
2026-04-23 14:23 5.92342 27.30904 37716 ft 463 kts 291°
2026-04-23 14:23 5.94865 27.24941 37712 ft 463 kts 291°
2026-04-23 14:24 5.97387 27.18982 37714 ft 463 kts 291°
2026-04-23 14:24 5.99906 27.13026 37715 ft 463 kts 291°
2026-04-23 14:25 6.02405 27.07117 37719 ft 462 kts 291°
2026-04-23 14:25 6.04921 27.01163 37720 ft 462 kts 291°
2026-04-23 14:26 6.07437 26.95210 37723 ft 462 kts 291°
2026-04-23 14:26 6.09948 26.89266 37720 ft 462 kts 291°
2026-04-23 14:27 6.12446 26.83349 37727 ft 464 kts 291°
2026-04-23 14:27 6.14978 26.77348 37726 ft 467 kts 291°
2026-04-23 14:28 6.17517 26.71331 37730 ft 467 kts 291°
2026-04-23 14:28 6.20054 26.65320 37728 ft 467 kts 291°
2026-04-23 14:29 6.22588 26.59308 37728 ft 467 kts 291°
2026-04-23 14:29 6.25108 26.53330 37730 ft 467 kts 291°
2026-04-23 14:30 6.27640 26.47321 37723 ft 467 kts 291°
2026-04-23 14:30 6.30329 26.41376 37720 ft 468 kts 295°
2026-04-23 14:31 6.33327 26.35565 37721 ft 468 kts 296°
2026-04-23 14:31 6.35866 26.30756 37720 ft 468 kts 296°
2026-04-23 14:32 6.38931 26.24971 37722 ft 468 kts 296°
2026-04-23 14:32 6.41994 26.19173 37715 ft 470 kts 296°
2026-04-23 14:33 6.45063 26.13350 37713 ft 471 kts 296°
2026-04-23 14:33 6.48128 26.07531 37712 ft 471 kts 296°
2026-04-23 14:34 6.51176 26.01743 37713 ft 471 kts 296°
2026-04-23 14:34 6.54243 25.95915 37711 ft 471 kts 296°
2026-04-23 14:35 6.57313 25.90082 37710 ft 473 kts 296°
2026-04-23 14:35 6.60393 25.84226 37710 ft 474 kts 296°
2026-04-23 14:36 6.63474 25.78367 37712 ft 474 kts 296°
2026-04-23 14:36 6.66555 25.72507 37711 ft 474 kts 296°
2026-04-23 14:37 6.69619 25.66675 37712 ft 474 kts 296°
2026-04-23 14:37 6.72699 25.60810 37712 ft 474 kts 296°
2026-04-23 14:38 6.75785 25.54933 37713 ft 475 kts 296°
2026-04-23 14:38 6.78875 25.49048 37708 ft 475 kts 296°
2026-04-23 14:39 6.81972 25.43147 37707 ft 475 kts 296°
2026-04-23 14:39 6.85042 25.37295 37702 ft 475 kts 296°
2026-04-23 14:40 6.88130 25.31405 37697 ft 474 kts 297°
2026-04-23 14:40 6.91200 25.25549 37701 ft 472 kts 297°
2026-04-23 14:41 6.94264 25.19701 37702 ft 471 kts 297°
2026-04-23 14:41 6.97306 25.13895 37699 ft 472 kts 297°
2026-04-23 14:42 7.00366 25.08051 37696 ft 472 kts 297°
2026-04-23 14:42 7.03429 25.02198 37701 ft 472 kts 297°
2026-04-23 14:43 7.06483 24.96361 37695 ft 471 kts 297°
2026-04-23 14:43 7.09532 24.90531 37699 ft 470 kts 297°
2026-04-23 14:44 7.12578 24.84706 37698 ft 470 kts 297°
2026-04-23 14:44 7.15604 24.78915 37695 ft 470 kts 297°
2026-04-23 14:45 7.18648 24.73088 37702 ft 470 kts 297°
2026-04-23 14:45 7.21694 24.67256 37704 ft 470 kts 297°
2026-04-23 14:46 7.24742 24.61417 37708 ft 470 kts 297°
2026-04-23 14:46 7.27762 24.55631 37707 ft 469 kts 297°
2026-04-23 14:47 7.30797 24.49813 37706 ft 469 kts 297°
2026-04-23 14:47 7.33836 24.43984 37708 ft 469 kts 297°
2026-04-23 14:48 7.36871 24.38163 37711 ft 469 kts 297°
2026-04-23 14:48 7.39900 24.32349 37707 ft 468 kts 297°
2026-04-23 14:49 7.42927 24.26537 37709 ft 468 kts 297°
2026-04-23 14:49 7.45935 24.20759 37716 ft 469 kts 297°
2026-04-23 14:50 7.48962 24.14945 37717 ft 469 kts 297°
2026-04-23 14:50 7.51989 24.09124 37729 ft 469 kts 297°
2026-04-23 14:51 7.55014 24.03308 37727 ft 469 kts 297°
2026-04-23 14:51 7.58051 23.97466 37729 ft 470 kts 297°
2026-04-23 14:52 7.61090 23.91617 37729 ft 470 kts 297°
2026-04-23 14:52 7.64104 23.85815 37741 ft 470 kts 297°
2026-04-23 14:53 7.67135 23.79977 37738 ft 470 kts 297°
2026-04-23 14:53 7.70167 23.74135 37723 ft 470 kts 297°
2026-04-23 14:54 7.73200 23.68288 37739 ft 470 kts 297°
2026-04-23 14:54 7.76234 23.62439 37737 ft 470 kts 297°
2026-04-23 14:55 7.79270 23.56582 37731 ft 470 kts 297°
2026-04-23 14:55 7.82280 23.50773 37720 ft 470 kts 297°
2026-04-23 14:56 7.85313 23.44916 37718 ft 470 kts 297°
2026-04-23 14:56 7.88345 23.39062 37735 ft 471 kts 297°
2026-04-23 14:57 7.91372 23.33211 37714 ft 471 kts 297°
2026-04-23 14:57 7.94407 23.27344 37731 ft 471 kts 297°
2026-04-23 14:58 7.97418 23.21521 37709 ft 471 kts 297°
2026-04-23 14:58 8.00447 23.15662 37729 ft 471 kts 297°
2026-04-23 14:59 8.03476 23.09799 37720 ft 471 kts 296°
2026-04-23 14:59 8.06498 23.03947 37718 ft 469 kts 296°
2026-04-23 15:00 8.09516 22.98102 37738 ft 469 kts 296°
2026-04-23 15:00 8.12529 22.92263 37733 ft 469 kts 296°
2026-04-23 15:01 8.15742 22.86517 37728 ft 470 kts 305°
2026-04-23 15:01 8.20131 22.81692 37731 ft 471 kts 315°
2026-04-23 15:02 8.25013 22.77256 37727 ft 472 kts 317°
2026-04-23 15:02 8.29986 22.72892 37734 ft 473 kts 317°
2026-04-23 15:03 8.34951 22.68520 37742 ft 474 kts 317°
2026-04-23 15:03 8.39907 22.64122 37746 ft 474 kts 317°
2026-04-23 15:04 8.44814 22.59752 37740 ft 472 kts 317°
2026-04-23 15:04 8.49743 22.55360 37737 ft 471 kts 317°
2026-04-23 15:05 8.54666 22.50972 37729 ft 471 kts 317°
2026-04-23 15:05 8.59586 22.46586 37732 ft 471 kts 317°
2026-04-23 15:06 8.64487 22.42216 37724 ft 474 kts 317°
2026-04-23 15:06 8.69439 22.37798 37719 ft 475 kts 317°
2026-04-23 15:07 8.74401 22.33371 37714 ft 475 kts 317°
2026-04-23 15:07 8.79359 22.28946 37711 ft 475 kts 316°
2026-04-23 15:08 8.84277 22.24554 37700 ft 474 kts 316°
2026-04-23 15:09 8.91698 22.17923 37691 ft 474 kts 316°
2026-04-23 15:09 8.96644 22.13503 37690 ft 474 kts 316°
2026-04-23 15:10 9.00746 22.09835 37685 ft 473 kts 316°
2026-04-23 15:10 9.06511 22.04679 37676 ft 473 kts 316°
2026-04-23 15:11 9.11411 22.00294 37677 ft 473 kts 316°
2026-04-23 15:11 9.16342 21.95879 37674 ft 472 kts 316°
2026-04-23 15:12 9.21259 21.91477 37676 ft 471 kts 316°
2026-04-23 15:12 9.26171 21.87075 37676 ft 471 kts 316°
2026-04-23 15:13 9.31083 21.82673 37669 ft 471 kts 316°
2026-04-23 15:13 9.35989 21.78275 37665 ft 471 kts 316°
2026-04-23 15:14 9.40873 21.73894 37669 ft 471 kts 316°
2026-04-23 15:14 9.45785 21.69486 37666 ft 471 kts 316°
2026-04-23 15:15 9.50690 21.65084 37677 ft 470 kts 316°
2026-04-23 15:15 9.55575 21.60743 37670 ft 464 kts 316°
2026-04-23 15:16 9.60467 21.56491 37666 ft 462 kts 317°
2026-04-23 15:16 9.65323 21.52280 37667 ft 463 kts 317°
2026-04-23 15:17 9.70212 21.48031 37667 ft 463 kts 317°
2026-04-23 15:17 9.75094 21.43781 37670 ft 463 kts 316°
2026-04-23 15:18 9.79982 21.39521 37668 ft 463 kts 316°
2026-04-23 15:18 9.84867 21.35262 37670 ft 463 kts 316°
2026-04-23 15:19 9.88921 21.31727 37672 ft 462 kts 317°
2026-04-23 15:19 9.93780 21.27490 37670 ft 459 kts 317°
2026-04-23 15:20 9.98626 21.23260 37672 ft 459 kts 316°
2026-04-23 15:20 10.03435 21.19062 37672 ft 459 kts 316°
2026-04-23 15:21 10.08292 21.14819 37670 ft 459 kts 316°
2026-04-23 15:21 10.13140 21.10583 37670 ft 461 kts 316°
2026-04-23 15:22 10.17983 21.06349 37673 ft 462 kts 316°
2026-04-23 15:22 10.22859 21.02085 37672 ft 462 kts 316°
2026-04-23 15:23 10.27729 20.97825 37675 ft 462 kts 316°
2026-04-23 15:23 10.32601 20.93562 37674 ft 462 kts 316°
2026-04-23 15:24 10.37476 20.89293 37675 ft 462 kts 316°
2026-04-23 15:24 10.42345 20.85028 37675 ft 462 kts 316°
2026-04-23 15:25 10.47216 20.80759 37673 ft 462 kts 316°
2026-04-23 15:25 10.52069 20.76504 37672 ft 464 kts 316°
2026-04-23 15:26 10.56969 20.72206 37672 ft 465 kts 316°
2026-04-23 15:26 10.61864 20.67911 37673 ft 464 kts 316°
2026-04-23 15:27 10.66727 20.63643 37672 ft 464 kts 316°
2026-04-23 15:27 10.71616 20.59349 37675 ft 464 kts 316°
2026-04-23 15:28 10.76498 20.55060 37678 ft 464 kts 316°
2026-04-23 15:28 10.81380 20.50768 37678 ft 464 kts 316°
2026-04-23 15:29 10.86263 20.46474 37679 ft 464 kts 316°
2026-04-23 15:29 10.91144 20.42180 37676 ft 463 kts 316°
2026-04-23 15:30 10.95987 20.37917 37679 ft 462 kts 316°
2026-04-23 15:30 11.00843 20.33641 37680 ft 460 kts 316°
2026-04-23 15:31 11.05672 20.29387 37679 ft 458 kts 316°
2026-04-23 15:31 11.10495 20.25135 37677 ft 458 kts 316°
2026-04-23 15:32 11.15298 20.20900 37676 ft 459 kts 316°
2026-04-23 15:32 11.20123 20.16643 37675 ft 459 kts 316°
2026-04-23 15:33 11.24956 20.12378 37675 ft 458 kts 316°
2026-04-23 15:33 11.29770 20.08127 37675 ft 457 kts 316°
2026-04-23 15:34 11.34578 20.03880 37679 ft 457 kts 316°
2026-04-23 15:34 11.39337 19.99674 37671 ft 453 kts 316°
2026-04-23 15:35 11.44110 19.95454 37672 ft 453 kts 316°
2026-04-23 15:35 11.48867 19.91244 37664 ft 453 kts 316°
2026-04-23 15:36 11.53603 19.87052 37667 ft 453 kts 316°
2026-04-23 15:36 11.58365 19.82836 37667 ft 453 kts 316°
2026-04-23 15:37 11.63124 19.78620 37664 ft 453 kts 316°
2026-04-23 15:37 11.67869 19.74383 37666 ft 452 kts 316°
2026-04-23 15:38 11.72562 19.70163 37667 ft 452 kts 315°
2026-04-23 15:38 11.77277 19.65921 37664 ft 451 kts 315°
2026-04-23 15:39 11.81985 19.61686 37670 ft 451 kts 315°
2026-04-23 15:39 11.86696 19.57449 37661 ft 451 kts 315°
2026-04-23 15:40 11.91402 19.53214 37671 ft 451 kts 315°
2026-04-23 15:40 11.96085 19.48999 37673 ft 451 kts 315°
2026-04-23 15:41 12.00791 19.44760 37670 ft 451 kts 315°
2026-04-23 15:41 12.05498 19.40518 37672 ft 451 kts 315°
2026-04-23 15:42 12.10206 19.36274 37671 ft 451 kts 315°
2026-04-23 15:42 12.14910 19.32031 37666 ft 451 kts 315°
2026-04-23 15:43 12.19576 19.27820 37665 ft 451 kts 315°
2026-04-23 15:43 12.24277 19.23575 37667 ft 451 kts 315°
2026-04-23 15:44 12.28980 19.19327 37661 ft 451 kts 315°
2026-04-23 15:44 12.33683 19.15076 37669 ft 451 kts 315°
2026-04-23 15:45 12.38393 19.10817 37654 ft 451 kts 315°
2026-04-23 15:45 12.43072 19.06583 37658 ft 452 kts 315°
2026-04-23 15:46 12.47784 19.02320 37660 ft 450 kts 315°
2026-04-23 15:46 12.52474 18.98074 37647 ft 448 kts 315°
2026-04-23 15:47 12.57126 18.93858 37652 ft 448 kts 315°
2026-04-23 15:47 12.61803 18.89617 37644 ft 448 kts 315°
2026-04-23 15:48 12.66479 18.85375 37650 ft 448 kts 315°
2026-04-23 15:48 12.71126 18.81158 37652 ft 449 kts 315°
2026-04-23 15:49 12.75796 18.76918 37651 ft 448 kts 315°
2026-04-23 15:49 12.80457 18.72683 37648 ft 447 kts 315°
2026-04-23 15:50 12.85090 18.68475 37659 ft 443 kts 315°
2026-04-23 15:50 12.89686 18.64296 37648 ft 441 kts 315°
2026-04-23 15:51 12.94251 18.60141 37646 ft 441 kts 315°
2026-04-23 15:51 12.98846 18.55958 37663 ft 441 kts 315°
2026-04-23 15:52 13.03435 18.51778 37656 ft 441 kts 315°
2026-04-23 15:52 13.08030 18.47591 37646 ft 441 kts 315°
2026-04-23 15:53 13.12622 18.43404 37657 ft 441 kts 315°
2026-04-23 15:53 13.17183 18.39244 37661 ft 441 kts 315°
2026-04-23 15:54 13.21768 18.35058 37656 ft 441 kts 315°
2026-04-23 15:54 13.26351 18.30874 37664 ft 441 kts 315°
2026-04-23 15:55 13.30932 18.26689 37661 ft 441 kts 315°
2026-04-23 15:55 13.35513 18.22502 37661 ft 441 kts 315°
2026-04-23 15:56 13.40065 18.18339 37666 ft 441 kts 315°
2026-04-23 15:56 13.44643 18.14150 37665 ft 441 kts 315°
2026-04-23 15:57 13.49224 18.09955 37664 ft 441 kts 315°
2026-04-23 15:57 13.53800 18.05764 37663 ft 441 kts 315°
2026-04-23 15:58 13.58354 18.01591 37673 ft 440 kts 315°
2026-04-23 15:58 13.62919 17.97404 37672 ft 439 kts 315°
2026-04-23 15:59 13.67480 17.93220 37672 ft 439 kts 315°
2026-04-23 15:59 13.72047 17.89027 37678 ft 439 kts 315°
2026-04-23 16:00 13.76610 17.84835 37682 ft 439 kts 315°
2026-04-23 16:00 13.81137 17.80674 37683 ft 439 kts 315°
2026-04-23 16:01 13.85700 17.76479 37690 ft 439 kts 315°
2026-04-23 16:01 13.90256 17.72287 37688 ft 439 kts 314°
2026-04-23 16:02 13.94809 17.68096 37687 ft 438 kts 314°
2026-04-23 16:02 13.99349 17.63914 37692 ft 438 kts 314°
2026-04-23 16:03 14.03893 17.59727 37695 ft 438 kts 314°
2026-04-23 16:03 14.08410 17.55561 37694 ft 438 kts 314°
2026-04-23 16:04 14.12955 17.51368 37693 ft 438 kts 314°
2026-04-23 16:04 14.17496 17.47176 37693 ft 438 kts 314°
2026-04-23 16:05 14.21269 17.43691 37699 ft 438 kts 314°
2026-04-23 16:05 14.26573 17.38791 37704 ft 438 kts 314°
2026-04-23 16:06 14.31082 17.34622 37702 ft 437 kts 314°
2026-04-23 16:06 14.35617 17.30427 37702 ft 437 kts 314°
2026-04-23 16:07 14.40150 17.26229 37705 ft 437 kts 314°
2026-04-23 16:07 14.44677 17.22037 37708 ft 437 kts 314°
2026-04-23 16:08 14.48446 17.18544 37708 ft 437 kts 314°
2026-04-23 16:08 14.53719 17.13654 37708 ft 437 kts 314°
2026-04-23 16:09 14.57485 17.10161 37708 ft 437 kts 314°
2026-04-23 16:09 14.62020 17.05951 37708 ft 437 kts 314°
2026-04-23 16:10 14.66555 17.01739 37702 ft 437 kts 314°
2026-04-23 16:10 14.71023 16.97587 37712 ft 433 kts 314°
2026-04-23 16:11 14.75498 16.93425 37716 ft 432 kts 314°
2026-04-23 16:11 14.79980 16.89252 37712 ft 433 kts 314°
2026-04-23 16:12 14.84454 16.85086 37712 ft 433 kts 314°
2026-04-23 16:12 14.88897 16.80946 37719 ft 433 kts 314°
2026-04-23 16:13 14.93370 16.76778 37716 ft 433 kts 314°
2026-04-23 16:13 15.00084 16.70514 37719 ft 433 kts 314°
2026-04-23 16:14 15.04545 16.66352 37721 ft 430 kts 314°
2026-04-23 16:14 15.08965 16.62225 37722 ft 426 kts 314°
2026-04-23 16:15 15.13366 16.58109 37721 ft 426 kts 314°
2026-04-23 16:15 15.17747 16.54010 37727 ft 427 kts 314°
2026-04-23 16:16 15.22151 16.49889 37727 ft 427 kts 314°
2026-04-23 16:16 15.26564 16.45757 37728 ft 427 kts 314°
2026-04-23 16:17 15.30970 16.41629 37733 ft 427 kts 314°
2026-04-23 16:17 15.35350 16.37523 37733 ft 427 kts 314°
2026-04-23 16:18 15.39755 16.33393 37735 ft 426 kts 314°
2026-04-23 16:18 15.44148 16.29269 37730 ft 425 kts 314°
2026-04-23 16:19 15.48536 16.25149 37735 ft 425 kts 314°
2026-04-23 16:19 15.52897 16.21051 37735 ft 425 kts 314°
2026-04-23 16:20 15.57290 16.16920 37735 ft 425 kts 314°
2026-04-23 16:20 15.61683 16.12788 37741 ft 425 kts 314°
2026-04-23 16:21 15.66046 16.08680 37741 ft 425 kts 314°
2026-04-23 16:21 15.70432 16.04550 37741 ft 425 kts 314°
2026-04-23 16:22 15.74812 16.00422 37774 ft 425 kts 313°
2026-04-23 16:22 15.79159 15.96323 37743 ft 425 kts 313°
2026-04-23 16:23 15.83534 15.92194 37748 ft 424 kts 313°
2026-04-23 16:23 15.87908 15.88064 37741 ft 424 kts 313°
2026-04-23 16:24 15.92284 15.83929 37751 ft 424 kts 313°
2026-04-23 16:24 15.96649 15.79803 37751 ft 424 kts 313°
2026-04-23 16:25 16.00992 15.75694 37754 ft 424 kts 313°
2026-04-23 16:25 16.05386 15.71535 37753 ft 424 kts 313°
2026-04-23 16:26 16.09729 15.67423 37748 ft 424 kts 313°
2026-04-23 16:26 16.14099 15.63282 37751 ft 424 kts 313°
2026-04-23 16:27 16.18456 15.59150 37755 ft 423 kts 313°
2026-04-23 16:27 16.22775 15.55051 37760 ft 423 kts 313°
2026-04-23 16:28 16.27136 15.50910 37761 ft 423 kts 313°
2026-04-23 16:28 16.31484 15.46779 37763 ft 423 kts 313°
2026-04-23 16:29 16.35832 15.42646 37765 ft 423 kts 313°
2026-04-23 16:29 16.40150 15.38538 37765 ft 423 kts 313°
2026-04-23 16:30 16.44493 15.34404 37764 ft 423 kts 313°
2026-04-23 16:30 16.48837 15.30266 37785 ft 423 kts 313°
2026-04-23 16:31 16.53162 15.26146 37770 ft 420 kts 313°
2026-04-23 16:31 16.57454 15.22053 37768 ft 420 kts 313°
2026-04-23 16:32 16.61763 15.17940 37772 ft 420 kts 313°
2026-04-23 16:32 16.66079 15.13818 37770 ft 420 kts 313°
2026-04-23 16:33 16.70392 15.09697 37770 ft 420 kts 313°
2026-04-23 16:33 16.74682 15.05595 37775 ft 420 kts 313°
2026-04-23 16:34 16.78997 15.01468 37772 ft 420 kts 313°
2026-04-23 16:34 16.83310 14.97338 37771 ft 420 kts 313°
2026-04-23 16:35 16.87584 14.93245 37776 ft 417 kts 313°
2026-04-23 16:35 16.91861 14.89145 37776 ft 418 kts 313°
2026-04-23 16:36 16.96158 14.85022 37770 ft 419 kts 313°
2026-04-23 16:36 17.00453 14.80900 37772 ft 419 kts 313°
2026-04-23 16:37 17.04752 14.76771 37774 ft 419 kts 313°
2026-04-23 16:37 17.09052 14.72639 37777 ft 419 kts 313°
2026-04-23 16:38 17.13346 14.68509 37775 ft 419 kts 313°
2026-04-23 16:38 17.17613 14.64404 37774 ft 419 kts 313°
2026-04-23 16:39 17.21910 14.60266 37773 ft 419 kts 313°
2026-04-23 16:39 17.26190 14.56143 37782 ft 418 kts 313°
2026-04-23 16:40 17.30466 14.52021 37777 ft 417 kts 313°
2026-04-23 16:40 17.34709 14.47926 37782 ft 417 kts 313°
2026-04-23 16:41 17.38986 14.43795 37793 ft 417 kts 313°
2026-04-23 16:41 17.43257 14.39668 38017 ft 417 kts 312°
2026-04-23 16:42 17.45394 14.37602 38145 ft 418 kts 312°
2026-04-23 16:42 17.47512 14.35553 38280 ft 419 kts 312°
2026-04-23 16:42 17.49650 14.33485 38451 ft 419 kts 312°
2026-04-23 16:42 17.51791 14.31413 38576 ft 419 kts 312°
2026-04-23 16:43 17.53929 14.29344 38715 ft 419 kts 312°
2026-04-23 16:43 17.56068 14.27273 38844 ft 419 kts 312°
2026-04-23 16:43 17.58210 14.25198 38965 ft 419 kts 312°
2026-04-23 16:43 17.60353 14.23122 39097 ft 419 kts 312°
2026-04-23 16:44 17.62470 14.21069 39198 ft 419 kts 312°
2026-04-23 16:44 17.64607 14.18997 39302 ft 419 kts 312°
2026-04-23 16:44 17.66748 14.16921 39419 ft 419 kts 312°
2026-04-23 16:44 17.68888 14.14844 39523 ft 419 kts 312°
2026-04-23 16:45 17.71030 14.12765 39639 ft 419 kts 312°
2026-04-23 16:45 17.73171 14.10686 39747 ft 419 kts 312°
2026-04-23 16:45 17.77443 14.06537 39782 ft 417 kts 312°
2026-04-23 16:46 17.81693 14.02407 39781 ft 416 kts 312°
2026-04-23 16:46 17.85936 13.98277 39782 ft 416 kts 312°
2026-04-23 16:47 17.90157 13.94167 39781 ft 416 kts 312°
2026-04-23 16:47 17.94399 13.90035 39786 ft 415 kts 311°
2026-04-23 16:48 17.98624 13.85918 39783 ft 412 kts 311°
2026-04-23 16:48 18.02809 13.81836 39782 ft 413 kts 311°
2026-04-23 16:49 18.07016 13.77727 39777 ft 413 kts 311°
2026-04-23 16:49 18.11224 13.73616 39777 ft 413 kts 311°
2026-04-23 16:50 18.15435 13.69501 39775 ft 413 kts 311°
2026-04-23 16:50 18.19645 13.65382 39774 ft 413 kts 311°
2026-04-23 16:51 18.23832 13.61284 39774 ft 413 kts 311°
2026-04-23 16:51 18.28036 13.57166 39774 ft 413 kts 311°
2026-04-23 16:52 18.32235 13.53051 39778 ft 411 kts 311°
2026-04-23 16:52 18.36417 13.48950 39770 ft 409 kts 311°
2026-04-23 16:53 18.40587 13.44855 39770 ft 409 kts 311°
2026-04-23 16:53 18.44723 13.40792 39770 ft 410 kts 311°
2026-04-23 16:54 18.48890 13.36696 39771 ft 409 kts 311°
2026-04-23 16:54 18.53053 13.32601 39768 ft 409 kts 311°
2026-04-23 16:55 18.57219 13.28501 39769 ft 409 kts 311°
2026-04-23 16:55 18.61380 13.24402 39769 ft 409 kts 311°
2026-04-23 16:56 18.65539 13.20303 39790 ft 409 kts 311°
2026-04-23 16:56 18.69689 13.16212 39772 ft 405 kts 311°
2026-04-23 16:57 18.73111 13.12835 39771 ft 404 kts 311°
2026-04-23 16:57 18.77881 13.08122 39770 ft 404 kts 311°
2026-04-23 16:58 18.81318 13.04724 39761 ft 404 kts 311°
2026-04-23 16:58 18.85420 13.00666 39759 ft 404 kts 311°
2026-04-23 16:59 18.89495 12.96632 39764 ft 404 kts 311°
2026-04-23 16:59 18.93605 12.92562 39765 ft 404 kts 311°
2026-04-23 17:00 18.97789 12.88580 39760 ft 408 kts 316°
2026-04-23 17:00 19.02521 12.85258 39761 ft 412 kts 320°
2026-04-23 17:01 19.07433 12.82116 39758 ft 412 kts 321°
2026-04-23 17:01 19.12366 12.79015 39757 ft 412 kts 321°
2026-04-23 17:02 19.17284 12.75910 39755 ft 411 kts 321°
2026-04-23 17:02 19.22196 12.72793 39755 ft 411 kts 321°
2026-04-23 17:03 19.27068 12.69692 39755 ft 411 kts 321°
2026-04-23 17:03 19.31965 12.66573 39755 ft 411 kts 321°
2026-04-23 17:04 19.36867 12.63449 39765 ft 411 kts 321°
2026-04-23 17:04 19.41761 12.60330 39749 ft 410 kts 321°
2026-04-23 17:05 19.46655 12.57207 39747 ft 410 kts 321°
2026-04-23 17:05 19.51544 12.54085 39744 ft 410 kts 321°
2026-04-23 17:06 19.56405 12.50980 39746 ft 410 kts 321°
2026-04-23 17:06 19.61298 12.47851 39743 ft 410 kts 321°
2026-04-23 17:07 19.66186 12.44724 39744 ft 410 kts 321°
2026-04-23 17:07 19.71073 12.41595 39752 ft 410 kts 321°
2026-04-23 17:08 19.75957 12.38465 39743 ft 410 kts 321°
2026-04-23 17:08 19.80846 12.35330 39743 ft 410 kts 321°
2026-04-23 17:09 19.85699 12.32216 39741 ft 410 kts 321°
2026-04-23 17:09 19.90587 12.29078 39741 ft 410 kts 321°
2026-04-23 17:10 19.95474 12.25937 39740 ft 410 kts 321°
2026-04-23 17:10 20.00362 12.22793 39740 ft 410 kts 321°
2026-04-23 17:11 20.05248 12.19649 39772 ft 410 kts 321°
2026-04-23 17:11 20.10086 12.16535 39741 ft 407 kts 321°
2026-04-23 17:12 20.14918 12.13423 39741 ft 405 kts 321°
2026-04-23 17:12 20.19744 12.10307 39741 ft 406 kts 321°
2026-04-23 17:13 20.24572 12.07190 39744 ft 406 kts 321°
2026-04-23 17:13 20.29403 12.04069 39733 ft 406 kts 321°
2026-04-23 17:14 20.34242 12.00940 39744 ft 407 kts 321°
2026-04-23 17:14 20.39055 11.97827 39744 ft 407 kts 321°
2026-04-23 17:15 20.43896 11.94694 39743 ft 406 kts 321°
2026-04-23 17:15 20.48724 11.91568 39743 ft 405 kts 321°
2026-04-23 17:16 20.53549 11.88439 39741 ft 406 kts 321°
2026-04-23 17:16 20.58373 11.85308 39741 ft 406 kts 321°
2026-04-23 17:17 20.63197 11.82174 39747 ft 406 kts 321°
2026-04-23 17:17 20.67987 11.79060 39746 ft 406 kts 321°
2026-04-23 17:18 20.75224 11.74350 39751 ft 405 kts 321°
2026-04-23 17:19 20.80022 11.71227 39739 ft 403 kts 321°
2026-04-23 17:19 20.84804 11.68110 39741 ft 402 kts 321°
2026-04-23 17:20 20.89588 11.64987 39743 ft 403 kts 321°
2026-04-23 17:21 20.99152 11.58740 39745 ft 404 kts 321°
2026-04-23 17:21 21.06346 11.54037 39744 ft 404 kts 321°
2026-04-23 17:22 21.13541 11.49326 39744 ft 404 kts 321°
2026-04-23 17:23 21.20734 11.44613 39744 ft 404 kts 321°
2026-04-23 17:24 21.27900 11.39911 39744 ft 404 kts 321°
2026-04-23 17:24 21.35099 11.35183 39744 ft 404 kts 321°
2026-04-23 17:25 21.42287 11.30456 39759 ft 404 kts 320°
2026-04-23 17:26 21.51824 11.24178 39747 ft 402 kts 320°
2026-04-23 17:27 21.58977 11.19460 39746 ft 402 kts 320°
2026-04-23 17:27 21.63718 11.16331 39747 ft 402 kts 320°
2026-04-23 17:28 21.68490 11.13179 39747 ft 402 kts 320°
2026-04-23 17:28 21.73253 11.10031 39749 ft 402 kts 320°
2026-04-23 17:29 21.77984 11.06901 39750 ft 401 kts 320°
2026-04-23 17:30 21.84305 11.02719 39749 ft 397 kts 320°
2026-04-23 17:30 21.92131 10.97528 39750 ft 397 kts 320°
2026-04-23 17:31 21.96836 10.94405 39756 ft 397 kts 320°
2026-04-23 17:31 22.01541 10.91279 39752 ft 397 kts 320°
2026-04-23 17:32 22.06216 10.88172 39749 ft 397 kts 320°
2026-04-23 17:32 22.10919 10.85044 39769 ft 397 kts 320°
2026-04-23 17:33 22.15601 10.81930 39751 ft 393 kts 320°
2026-04-23 17:33 22.20249 10.78834 39753 ft 393 kts 320°
2026-04-23 17:34 22.24906 10.75726 39757 ft 393 kts 320°
2026-04-23 17:35 22.31859 10.71084 39758 ft 393 kts 320°
2026-04-23 17:35 22.38834 10.66422 39764 ft 393 kts 320°
2026-04-23 17:36 22.43491 10.63307 39803 ft 393 kts 320°
2026-04-23 17:36 22.48084 10.60237 39758 ft 387 kts 320°
2026-04-23 17:37 22.52651 10.57180 39752 ft 385 kts 320°
2026-04-23 17:38 22.59521 10.52564 39767 ft 389 kts 320°
2026-04-23 17:38 22.64135 10.49492 39767 ft 390 kts 321°
2026-04-23 17:39 22.68838 10.46526 39769 ft 391 kts 322°
2026-04-23 17:39 22.73538 10.43617 39770 ft 391 kts 322°
2026-04-23 17:40 22.78269 10.40679 39771 ft 390 kts 322°
2026-04-23 17:40 22.82944 10.37764 39770 ft 386 kts 321°
2026-04-23 17:41 22.87585 10.34859 39771 ft 385 kts 321°
2026-04-23 17:41 22.94546 10.30492 39773 ft 385 kts 321°
2026-04-23 17:42 23.01512 10.26122 39771 ft 385 kts 321°
2026-04-23 17:43 23.06153 10.23208 39774 ft 385 kts 321°
2026-04-23 17:43 23.10770 10.20307 39792 ft 385 kts 321°
2026-04-23 17:44 23.15403 10.17395 39775 ft 383 kts 321°
2026-04-23 17:44 23.22328 10.13035 39777 ft 383 kts 321°
2026-04-23 17:45 23.28468 10.09164 39777 ft 383 kts 321°
2026-04-23 17:46 23.35394 10.04793 39780 ft 383 kts 321°
2026-04-23 17:46 23.40009 10.01878 39780 ft 383 kts 321°
2026-04-23 17:47 23.44598 9.98977 39793 ft 383 kts 321°
2026-04-23 17:48 23.51473 9.94630 39787 ft 380 kts 321°
2026-04-23 17:48 23.56048 9.91731 39793 ft 380 kts 321°
2026-04-23 17:49 23.60631 9.88824 39791 ft 380 kts 321°
2026-04-23 17:49 23.65207 9.85920 39794 ft 380 kts 321°
2026-04-23 17:50 23.69758 9.83031 39789 ft 380 kts 321°
2026-04-23 17:50 23.76648 9.78649 39826 ft 382 kts 321°
2026-04-23 17:51 23.81230 9.75736 39798 ft 380 kts 321°
2026-04-23 17:52 23.88046 9.71396 39809 ft 379 kts 321°
2026-04-23 17:52 23.94884 9.67034 39805 ft 379 kts 321°
2026-04-23 17:53 24.01721 9.62668 39823 ft 379 kts 321°
2026-04-23 17:54 24.06280 9.59754 39846 ft 379 kts 321°
2026-04-23 17:54 24.13112 9.55384 39881 ft 377 kts 321°
2026-04-23 17:55 24.19897 9.51038 39906 ft 376 kts 321°
2026-04-23 17:56 24.24388 9.48156 39911 ft 376 kts 321°
2026-04-23 17:56 24.29125 9.45582 39908 ft 387 kts 330°
2026-04-23 17:56 24.31738 9.44728 39910 ft 395 kts 335°
2026-04-23 17:57 24.37144 9.43402 39910 ft 400 kts 337°
2026-04-23 17:58 24.45360 9.41637 39884 ft 401 kts 338°
2026-04-23 17:58 24.50832 9.40450 39874 ft 400 kts 337°
2026-04-23 17:59 24.56300 9.39244 39862 ft 400 kts 337°
2026-04-23 17:59 24.61764 9.38029 39832 ft 400 kts 337°
2026-04-23 18:00 24.67201 9.36817 39830 ft 401 kts 337°
2026-04-23 18:00 24.72671 9.35599 39878 ft 401 kts 337°
2026-04-23 18:01 24.78126 9.34387 39842 ft 398 kts 337°
2026-04-23 18:01 24.83558 9.33176 39861 ft 398 kts 337°
2026-04-23 18:02 24.88985 9.31963 39851 ft 398 kts 337°
2026-04-23 18:02 24.94417 9.30749 39852 ft 397 kts 337°
2026-04-23 18:03 24.99835 9.29538 39867 ft 397 kts 337°
2026-04-23 18:03 25.05226 9.28332 39883 ft 398 kts 337°
2026-04-23 18:04 25.10631 9.27124 39867 ft 395 kts 337°
2026-04-23 18:04 25.16014 9.25919 39867 ft 394 kts 337°
2026-04-23 18:05 25.21402 9.24708 39869 ft 395 kts 337°
2026-04-23 18:05 25.26791 9.23497 39870 ft 395 kts 337°
2026-04-23 18:06 25.32178 9.22286 39869 ft 395 kts 337°
2026-04-23 18:06 25.37560 9.21075 39869 ft 395 kts 337°
2026-04-23 18:07 25.42902 9.19873 39861 ft 393 kts 337°
2026-04-23 18:07 25.48265 9.18665 39853 ft 393 kts 337°
2026-04-23 18:08 25.52720 9.17659 39852 ft 393 kts 337°
2026-04-23 18:08 25.58986 9.16244 39854 ft 393 kts 337°
2026-04-23 18:09 25.64352 9.15031 39845 ft 393 kts 337°
2026-04-23 18:09 25.69679 9.13827 39843 ft 392 kts 337°
2026-04-23 18:10 25.75010 9.12623 39845 ft 390 kts 337°
2026-04-23 18:10 25.80320 9.11419 39843 ft 390 kts 337°
2026-04-23 18:11 25.85646 9.10209 39842 ft 390 kts 337°
2026-04-23 18:11 25.90963 9.09001 39833 ft 390 kts 337°
2026-04-23 18:12 25.96294 9.07789 39850 ft 391 kts 337°
2026-04-23 18:12 26.01602 9.06583 39848 ft 391 kts 337°
2026-04-23 18:13 26.06931 9.05383 39845 ft 390 kts 336°
2026-04-23 18:13 26.12257 9.04181 39850 ft 390 kts 337°
2026-04-23 18:14 26.17583 9.02977 39846 ft 390 kts 337°
2026-04-23 18:14 26.22908 9.01773 39838 ft 390 kts 336°
2026-04-23 18:15 26.28226 9.00572 39868 ft 389 kts 337°
2026-04-23 18:15 26.33512 8.99374 39840 ft 390 kts 337°
2026-04-23 18:16 26.38825 8.98166 39835 ft 390 kts 337°
2026-04-23 18:16 26.44150 8.96955 39834 ft 390 kts 337°
2026-04-23 18:17 26.52139 8.95140 39829 ft 390 kts 337°
2026-04-23 18:17 26.57427 8.93936 39835 ft 390 kts 337°
2026-04-23 18:18 26.62751 8.92722 39828 ft 391 kts 337°
2026-04-23 18:18 26.68082 8.91505 39827 ft 391 kts 337°
2026-04-23 18:19 26.73418 8.90287 39859 ft 391 kts 337°
2026-04-23 18:19 26.78758 8.89068 39860 ft 391 kts 337°
2026-04-23 18:20 26.84094 8.87848 39859 ft 391 kts 337°
2026-04-23 18:20 26.89426 8.86627 39883 ft 391 kts 337°
2026-04-23 18:21 26.94733 8.85410 39848 ft 392 kts 337°
2026-04-23 18:21 27.00094 8.84180 39835 ft 393 kts 338°
2026-04-23 18:22 27.05462 8.82958 39832 ft 393 kts 338°
2026-04-23 18:22 27.10824 8.81740 39834 ft 393 kts 338°
2026-04-23 18:23 27.18866 8.79908 39831 ft 393 kts 338°
2026-04-23 18:24 27.26917 8.78070 39840 ft 394 kts 338°
2026-04-23 18:25 27.34945 8.76235 39846 ft 394 kts 338°
2026-04-23 18:25 27.40318 8.75006 39845 ft 394 kts 338°
2026-04-23 18:26 27.45688 8.73775 39847 ft 394 kts 338°
2026-04-23 18:26 27.51063 8.72542 39846 ft 394 kts 338°
2026-04-23 18:27 27.56436 8.71309 39849 ft 394 kts 338°
2026-04-23 18:27 27.61815 8.70073 39863 ft 394 kts 338°
2026-04-23 18:28 27.67203 8.68833 39854 ft 394 kts 338°
2026-04-23 18:28 27.72556 8.67601 39860 ft 394 kts 338°
2026-04-23 18:29 27.77936 8.66361 39852 ft 394 kts 338°
2026-04-23 18:29 27.83317 8.65119 39856 ft 395 kts 338°
2026-04-23 18:30 27.88700 8.63876 39858 ft 395 kts 338°
2026-04-23 18:30 27.93176 8.62841 39864 ft 395 kts 338°
2026-04-23 18:31 27.98559 8.61596 39864 ft 395 kts 338°
2026-04-23 18:31 28.04823 8.60145 39864 ft 395 kts 338°
2026-04-23 18:32 28.09342 8.59098 39865 ft 395 kts 338°
2026-04-23 18:32 28.14698 8.57865 39869 ft 396 kts 338°
2026-04-23 18:33 28.20100 8.56628 39861 ft 396 kts 338°
2026-04-23 18:33 28.25506 8.55390 39870 ft 396 kts 338°
2026-04-23 18:34 28.30923 8.54145 39881 ft 396 kts 338°
2026-04-23 18:34 28.36328 8.52902 39874 ft 396 kts 338°
2026-04-23 18:35 28.41736 8.51657 39887 ft 397 kts 339°
2026-04-23 18:35 28.47125 8.50413 39877 ft 398 kts 339°
2026-04-23 18:36 28.52565 8.49158 39883 ft 399 kts 339°
2026-04-23 18:36 28.58007 8.47903 39884 ft 399 kts 339°
2026-04-23 18:37 28.63449 8.46645 39887 ft 399 kts 339°
2026-04-23 18:37 28.68889 8.45386 39885 ft 399 kts 339°
2026-04-23 18:38 28.74333 8.44123 39889 ft 400 kts 339°
2026-04-23 18:38 28.79764 8.42863 39889 ft 401 kts 339°
2026-04-23 18:39 28.85234 8.41593 39891 ft 401 kts 339°
2026-04-23 18:39 28.90702 8.40324 39889 ft 401 kts 339°
2026-04-23 18:40 28.96185 8.39048 39883 ft 401 kts 339°
2026-04-23 18:40 29.01655 8.37773 39894 ft 402 kts 339°
2026-04-23 18:41 29.07154 8.36488 39886 ft 404 kts 339°
2026-04-23 18:41 29.12669 8.35201 39886 ft 404 kts 339°
2026-04-23 18:42 29.18154 8.33921 39877 ft 404 kts 339°
2026-04-23 18:42 29.23656 8.32635 39890 ft 403 kts 339°
2026-04-23 18:43 29.29161 8.31346 39916 ft 404 kts 339°
2026-04-23 18:43 29.34679 8.30049 39887 ft 406 kts 339°
2026-04-23 18:44 29.40224 8.28747 39890 ft 407 kts 340°
2026-04-23 18:44 29.45776 8.27443 39892 ft 407 kts 340°
2026-04-23 18:45 29.51289 8.26147 39892 ft 407 kts 340°
2026-04-23 18:45 29.56839 8.24840 39891 ft 407 kts 340°
2026-04-23 18:46 29.62404 8.23527 39888 ft 408 kts 340°
2026-04-23 18:46 29.67945 8.22218 39891 ft 409 kts 340°
2026-04-23 18:47 29.73525 8.20900 39895 ft 409 kts 340°
2026-04-23 18:47 29.79098 8.19582 39894 ft 409 kts 340°
2026-04-23 18:48 29.84674 8.18261 39891 ft 409 kts 340°
2026-04-23 18:48 29.90221 8.16945 39897 ft 410 kts 340°
2026-04-23 18:49 29.95826 8.15613 39896 ft 412 kts 340°
2026-04-23 18:49 30.01444 8.14278 39896 ft 412 kts 340°
2026-04-23 18:50 30.06117 8.13168 39902 ft 412 kts 340°
2026-04-23 18:50 30.12683 8.11629 39901 ft 411 kts 341°
2026-04-23 18:51 30.18309 8.10314 39912 ft 413 kts 341°
2026-04-23 18:51 30.23967 8.08988 39896 ft 415 kts 341°
2026-04-23 18:52 30.29631 8.07660 39908 ft 415 kts 341°
2026-04-23 18:52 30.35250 8.06342 39908 ft 415 kts 341°
2026-04-23 18:53 30.40910 8.05010 39895 ft 415 kts 341°
2026-04-23 18:53 30.46578 8.03675 39905 ft 415 kts 341°
2026-04-23 18:54 30.52253 8.02338 39911 ft 415 kts 341°
2026-04-23 18:54 30.57915 8.01002 39896 ft 415 kts 341°
2026-04-23 18:55 30.63538 7.99674 39910 ft 415 kts 341°
2026-04-23 18:55 30.69203 7.98333 39895 ft 415 kts 341°
2026-04-23 18:56 30.73915 7.97216 39907 ft 416 kts 341°
2026-04-23 18:56 30.80565 7.95638 39906 ft 417 kts 341°
2026-04-23 18:57 30.86263 7.94286 39902 ft 418 kts 341°
2026-04-23 18:57 30.91924 7.92941 39906 ft 417 kts 341°
2026-04-23 18:58 30.97616 7.91587 39918 ft 417 kts 341°
2026-04-23 18:58 31.03312 7.90229 39915 ft 418 kts 341°
2026-04-23 18:59 31.09028 7.88864 39916 ft 419 kts 341°
2026-04-23 18:59 31.14749 7.87497 39913 ft 419 kts 341°
2026-04-23 19:00 31.20431 7.86140 39920 ft 419 kts 341°
2026-04-23 19:00 31.26154 7.84771 39919 ft 419 kts 341°
2026-04-23 19:01 31.31877 7.83397 39929 ft 420 kts 342°
2026-04-23 19:01 31.37613 7.82018 39923 ft 421 kts 342°
2026-04-23 19:02 31.42392 7.80870 39926 ft 421 kts 342°
2026-04-23 19:02 31.49109 7.79255 39927 ft 421 kts 342°
2026-04-23 19:03 31.54858 7.77871 39929 ft 421 kts 342°
2026-04-23 19:03 31.60608 7.76483 39935 ft 422 kts 342°
2026-04-23 19:04 31.66332 7.75099 39934 ft 423 kts 342°
2026-04-23 19:04 31.72095 7.73706 39940 ft 423 kts 342°
2026-04-23 19:05 31.77859 7.72317 39940 ft 423 kts 342°
2026-04-23 19:05 31.83632 7.70950 39942 ft 423 kts 342°
2026-04-23 19:06 31.89406 7.69587 39936 ft 424 kts 343°
2026-04-23 19:06 31.95201 7.68216 39957 ft 424 kts 343°
2026-04-23 19:07 32.00987 7.66843 39944 ft 424 kts 343°
2026-04-23 19:07 32.06742 7.65476 39947 ft 424 kts 343°
2026-04-23 19:08 32.12537 7.64096 39963 ft 424 kts 343°
2026-04-23 19:08 32.18330 7.62715 39955 ft 424 kts 343°
2026-04-23 19:09 32.24124 7.61333 39955 ft 425 kts 343°
2026-04-23 19:09 32.29878 7.59959 39956 ft 424 kts 343°
2026-04-23 19:10 32.35673 7.58573 39955 ft 425 kts 343°
2026-04-23 19:10 32.41469 7.57184 39964 ft 425 kts 343°
2026-04-23 19:11 32.47281 7.55790 39964 ft 426 kts 343°
2026-04-23 19:11 32.53097 7.54394 39964 ft 426 kts 343°
2026-04-23 19:12 32.57924 7.53233 39964 ft 426 kts 343°
2026-04-23 19:12 32.64675 7.51608 39970 ft 426 kts 343°
2026-04-23 19:13 32.70487 7.50206 39971 ft 426 kts 343°
2026-04-23 19:13 32.76304 7.48801 39969 ft 427 kts 343°
2026-04-23 19:14 32.82123 7.47395 39970 ft 427 kts 343°
2026-04-23 19:14 32.87948 7.45985 39973 ft 427 kts 343°
2026-04-23 19:15 32.93764 7.44575 39998 ft 427 kts 343°
2026-04-23 19:15 32.99588 7.43161 39979 ft 427 kts 343°
2026-04-23 19:16 33.05377 7.41754 39982 ft 427 kts 343°
2026-04-23 19:16 33.11211 7.40335 39982 ft 427 kts 343°
2026-04-23 19:17 33.19954 7.38203 39983 ft 427 kts 343°
2026-04-23 19:17 33.25786 7.36779 39983 ft 427 kts 343°
2026-04-23 19:18 33.30626 7.35596 39985 ft 427 kts 343°
2026-04-23 19:18 33.37404 7.33937 39985 ft 427 kts 343°
2026-04-23 19:19 33.45169 7.32032 39985 ft 427 kts 343°
2026-04-23 19:20 33.53904 7.29885 39985 ft 426 kts 343°
2026-04-23 19:20 33.59714 7.28455 39979 ft 426 kts 343°
2026-04-23 19:21 33.68430 7.26306 39977 ft 426 kts 343°
2026-04-23 19:22 33.74205 7.24879 39992 ft 426 kts 343°
2026-04-23 19:22 33.82918 7.22723 39977 ft 426 kts 344°
2026-04-23 19:23 33.88727 7.21283 39977 ft 426 kts 344°
2026-04-23 19:24 33.97405 7.19128 39974 ft 426 kts 344°
2026-04-23 19:24 34.06116 7.16960 39974 ft 427 kts 344°
2026-04-23 19:25 34.17790 7.14049 39971 ft 428 kts 344°
2026-04-23 19:26 34.26549 7.11859 39971 ft 428 kts 344°
2026-04-23 19:27 34.41071 7.08220 39974 ft 424 kts 344°
2026-04-23 19:28 34.52618 7.05314 39982 ft 425 kts 344°
2026-04-23 19:29 34.61304 7.03123 39993 ft 425 kts 344°
2026-04-23 19:30 34.70001 7.00925 40010 ft 425 kts 344°
2026-04-23 19:31 34.78653 6.98734 40018 ft 425 kts 344°
2026-04-23 19:31 34.84458 6.97283 40037 ft 427 kts 344°
2026-04-23 19:32 34.90291 6.95843 40039 ft 427 kts 344°
2026-04-23 19:32 34.96117 6.94404 40056 ft 427 kts 344°
2026-04-23 19:33 35.01946 6.92962 40057 ft 427 kts 344°
2026-04-23 19:33 35.10703 6.90787 40072 ft 427 kts 344°
2026-04-23 19:34 35.16491 6.89346 40086 ft 427 kts 344°
2026-04-23 19:35 35.25218 6.87170 40092 ft 427 kts 344°
2026-04-23 19:35 35.31045 6.85713 40105 ft 427 kts 345°
2026-04-23 19:36 35.36862 6.84258 40075 ft 425 kts 345°
2026-04-23 19:36 35.42676 6.82801 40088 ft 427 kts 345°
2026-04-23 19:37 35.48505 6.81338 40074 ft 428 kts 345°
2026-04-23 19:37 35.54300 6.79883 40089 ft 428 kts 345°
2026-04-23 19:38 35.60135 6.78416 40086 ft 426 kts 345°
2026-04-23 19:38 35.65939 6.76954 40085 ft 424 kts 345°
2026-04-23 19:39 35.71731 6.75493 40081 ft 424 kts 345°
2026-04-23 19:39 35.77485 6.74037 40085 ft 425 kts 345°
2026-04-23 19:40 35.83273 6.72572 40085 ft 425 kts 344°
2026-04-23 19:40 35.89071 6.71102 40092 ft 425 kts 344°
2026-04-23 19:41 35.94860 6.69632 40085 ft 424 kts 344°
2026-04-23 19:41 36.00646 6.68161 40091 ft 424 kts 344°
2026-04-23 19:42 36.06442 6.66686 40109 ft 425 kts 344°
2026-04-23 19:42 36.12195 6.65218 40102 ft 424 kts 344°
2026-04-23 19:43 36.17977 6.63741 40102 ft 424 kts 344°
2026-04-23 19:43 36.23760 6.62263 40100 ft 424 kts 344°
2026-04-23 19:44 36.29544 6.60799 40103 ft 424 kts 345°
2026-04-23 19:44 36.35351 6.59624 40105 ft 426 kts 347°
2026-04-23 19:45 36.41217 6.58581 40100 ft 425 kts 348°
2026-04-23 19:45 36.47075 6.57531 40100 ft 425 kts 347°
2026-04-23 19:46 36.52933 6.56452 40101 ft 425 kts 347°
2026-04-23 19:46 36.58786 6.55360 40103 ft 425 kts 347°
2026-04-23 19:47 36.63648 6.54450 40098 ft 424 kts 347°
2026-04-23 19:47 36.70478 6.53172 40093 ft 424 kts 347°
2026-04-23 19:48 36.76284 6.52083 40094 ft 424 kts 347°
2026-04-23 19:48 36.82127 6.50986 40113 ft 424 kts 347°
2026-04-23 19:49 36.87959 6.49892 40094 ft 422 kts 347°
2026-04-23 19:49 36.93735 6.48804 40096 ft 422 kts 347°
2026-04-23 19:50 36.99545 6.47708 40096 ft 422 kts 347°
2026-04-23 19:50 37.05362 6.46610 40093 ft 423 kts 347°
2026-04-23 19:51 37.11185 6.45509 40090 ft 423 kts 347°
2026-04-23 19:51 37.17014 6.44405 40098 ft 423 kts 347°
2026-04-23 19:52 37.21868 6.43484 40098 ft 423 kts 347°
2026-04-23 19:52 37.28641 6.42198 40098 ft 423 kts 347°
2026-04-23 19:53 37.34480 6.41087 40099 ft 424 kts 347°
2026-04-23 19:53 37.40310 6.39976 40105 ft 424 kts 347°
2026-04-23 19:54 37.46114 6.38868 40101 ft 424 kts 347°
2026-04-23 19:54 37.51957 6.37751 40101 ft 424 kts 347°
2026-04-23 19:55 37.57796 6.36632 40106 ft 423 kts 347°
2026-04-23 19:55 37.63589 6.35521 40109 ft 423 kts 347°
2026-04-23 19:56 37.69420 6.34401 40109 ft 423 kts 347°
2026-04-23 19:56 37.75244 6.33280 40112 ft 423 kts 347°
2026-04-23 19:57 37.81064 6.32159 40118 ft 423 kts 348°
2026-04-23 19:57 37.85896 6.31227 40120 ft 422 kts 348°
2026-04-23 19:58 37.92655 6.29920 40114 ft 422 kts 348°
2026-04-23 19:58 37.98466 6.28795 40118 ft 422 kts 348°
2026-04-23 19:59 38.04274 6.27668 40132 ft 422 kts 348°
2026-04-23 19:59 38.10083 6.26540 40129 ft 422 kts 348°
2026-04-23 20:00 38.15899 6.25408 40127 ft 422 kts 348°
2026-04-23 20:00 38.21721 6.24274 40133 ft 422 kts 348°
2026-04-23 20:01 38.27535 6.23139 40133 ft 422 kts 348°
2026-04-23 20:01 38.33309 6.22010 40130 ft 422 kts 348°
2026-04-23 20:02 38.39122 6.20871 40133 ft 422 kts 348°
2026-04-23 20:02 38.44941 6.19730 40131 ft 422 kts 348°
2026-04-23 20:03 38.50790 6.18579 40141 ft 428 kts 348°
2026-04-23 20:03 38.56688 6.17418 40133 ft 429 kts 348°
2026-04-23 20:04 38.62556 6.16263 40138 ft 429 kts 348°
2026-04-23 20:04 38.68465 6.15097 40138 ft 429 kts 348°
2026-04-23 20:05 38.73362 6.14129 40156 ft 429 kts 348°
2026-04-23 20:05 38.80255 6.12763 40140 ft 428 kts 348°
2026-04-23 20:06 38.86111 6.11601 40141 ft 428 kts 348°
2026-04-23 20:06 38.91996 6.10431 40143 ft 428 kts 348°
2026-04-23 20:07 38.96925 6.09450 40150 ft 428 kts 348°
2026-04-23 20:07 39.02784 6.08323 40138 ft 429 kts 349°
2026-04-23 20:08 39.08714 6.07283 40137 ft 430 kts 349°
2026-04-23 20:08 39.14657 6.06258 40141 ft 430 kts 349°
2026-04-23 20:09 39.20569 6.05229 40153 ft 430 kts 349°
2026-04-23 20:09 39.26506 6.04186 40142 ft 430 kts 349°
2026-04-23 20:10 39.32443 6.03138 40144 ft 430 kts 349°
2026-04-23 20:10 39.38383 6.02089 40143 ft 430 kts 349°
2026-04-23 20:11 39.44318 6.01038 40148 ft 430 kts 349°
2026-04-23 20:11 39.50210 5.99994 40143 ft 430 kts 349°
2026-04-23 20:12 39.56139 5.98942 40142 ft 430 kts 349°
2026-04-23 20:12 39.62063 5.97888 40149 ft 430 kts 349°
2026-04-23 20:13 39.67993 5.96832 40150 ft 430 kts 349°
2026-04-23 20:13 39.73918 5.95774 40146 ft 429 kts 349°
2026-04-23 20:14 39.79846 5.94715 40147 ft 429 kts 349°
2026-04-23 20:14 39.85769 5.93654 40149 ft 429 kts 349°
2026-04-23 20:15 39.91689 5.92592 40153 ft 429 kts 349°
2026-04-23 20:15 39.97567 5.91535 40157 ft 429 kts 349°
2026-04-23 20:16 40.03488 5.90470 40158 ft 429 kts 349°
2026-04-23 20:16 40.09411 5.89401 40159 ft 429 kts 349°
2026-04-23 20:17 40.15326 5.88333 40160 ft 429 kts 349°
2026-04-23 20:17 40.21241 5.87263 40160 ft 429 kts 349°
2026-04-23 20:18 40.27160 5.86189 40162 ft 429 kts 349°
2026-04-23 20:18 40.33030 5.85123 40175 ft 429 kts 349°
2026-04-23 20:19 40.38950 5.84046 40163 ft 429 kts 349°
2026-04-23 20:19 40.44866 5.82978 40165 ft 429 kts 350°
2026-04-23 20:20 40.50796 5.82014 40170 ft 429 kts 351°
2026-04-23 20:20 40.56726 5.81095 40169 ft 429 kts 351°
2026-04-23 20:21 40.62625 5.80177 40173 ft 429 kts 351°
2026-04-23 20:21 40.68568 5.79240 40172 ft 429 kts 351°
2026-04-23 20:22 40.74498 5.78299 40172 ft 429 kts 351°
2026-04-23 20:22 40.80436 5.77355 40176 ft 430 kts 351°
2026-04-23 20:23 40.86384 5.76407 40176 ft 431 kts 351°
2026-04-23 20:23 40.92341 5.75457 40178 ft 431 kts 351°
2026-04-23 20:24 40.98295 5.74507 40178 ft 431 kts 351°
2026-04-23 20:24 41.04247 5.73554 40180 ft 431 kts 351°
2026-04-23 20:25 41.10203 5.72599 40177 ft 431 kts 351°
2026-04-23 20:25 41.16130 5.71647 40178 ft 431 kts 351°
2026-04-23 20:26 41.22084 5.70688 40181 ft 431 kts 351°
2026-04-23 20:26 41.28060 5.69724 40181 ft 433 kts 351°
2026-04-23 20:27 41.34037 5.68759 40188 ft 433 kts 351°
2026-04-23 20:27 41.40018 5.67792 40187 ft 433 kts 351°
2026-04-23 20:28 41.46001 5.66822 40191 ft 433 kts 351°
2026-04-23 20:28 41.51977 5.65851 40186 ft 432 kts 351°
2026-04-23 20:29 41.57916 5.64885 40189 ft 432 kts 351°
2026-04-23 20:29 41.63892 5.63911 40199 ft 432 kts 351°
2026-04-23 20:30 41.69874 5.62934 40193 ft 433 kts 351°
2026-04-23 20:30 41.78844 5.61452 40194 ft 432 kts 350°
2026-04-23 20:31 41.84808 5.60342 40193 ft 432 kts 349°
2026-04-23 20:31 41.90774 5.59184 40190 ft 433 kts 349°
2026-04-23 20:32 41.96743 5.58027 40191 ft 433 kts 349°
2026-04-23 20:32 42.02718 5.56878 40196 ft 433 kts 350°
2026-04-23 20:33 42.08687 5.55731 40205 ft 434 kts 350°
2026-04-23 20:33 42.14665 5.54581 40197 ft 434 kts 350°
2026-04-23 20:34 42.20615 5.53434 40206 ft 434 kts 350°
2026-04-23 20:34 42.26604 5.52277 40198 ft 434 kts 350°
2026-04-23 20:35 42.32600 5.51116 40201 ft 435 kts 350°
2026-04-23 20:35 42.38602 5.49952 40200 ft 436 kts 350°
2026-04-23 20:36 42.44609 5.48785 40201 ft 436 kts 350°
2026-04-23 20:36 42.50615 5.47615 40206 ft 436 kts 350°
2026-04-23 20:37 42.56600 5.46447 40203 ft 437 kts 350°
2026-04-23 20:37 42.62638 5.45267 40205 ft 437 kts 350°
2026-04-23 20:38 42.68668 5.44086 40208 ft 437 kts 350°
2026-04-23 20:38 42.74695 5.42904 40208 ft 437 kts 350°
2026-04-23 20:39 42.80725 5.41718 40206 ft 437 kts 350°
2026-04-23 20:39 42.86713 5.40538 40206 ft 437 kts 350°
2026-04-23 20:40 42.92756 5.39345 40209 ft 438 kts 350°
2026-04-23 20:40 42.98805 5.38148 40208 ft 440 kts 350°
2026-04-23 20:41 43.04868 5.36947 40209 ft 440 kts 350°
2026-04-23 20:41 43.10934 5.35742 40208 ft 440 kts 350°
2026-04-23 20:42 43.16995 5.34536 40209 ft 441 kts 350°
2026-04-23 20:42 43.23042 5.33441 40209 ft 442 kts 354°
2026-04-23 20:43 43.29191 5.33015 40207 ft 442 kts 355°
2026-04-23 20:43 43.35336 5.32672 40211 ft 441 kts 353°
2026-04-23 20:44 43.41327 5.30954 40212 ft 440 kts 342°
2026-04-23 20:44 43.47132 5.28454 40211 ft 440 kts 341°
2026-04-23 20:45 43.52942 5.25771 40212 ft 440 kts 340°
2026-04-23 20:45 43.58770 5.23067 40208 ft 442 kts 340°
2026-04-23 20:46 43.64600 5.20380 40211 ft 442 kts 341°
2026-04-23 20:46 43.70436 5.17699 40210 ft 442 kts 341°
2026-04-23 20:47 43.76281 5.15010 40206 ft 444 kts 341°
2026-04-23 20:47 43.82150 5.12304 40203 ft 445 kts 341°
2026-04-23 20:48 43.87990 5.09606 40205 ft 445 kts 341°
2026-04-23 20:48 43.93860 5.06887 40209 ft 445 kts 341°
2026-04-23 20:49 43.99741 5.04157 40206 ft 446 kts 341°
2026-04-23 20:49 44.05625 5.01421 40205 ft 446 kts 341°
2026-04-23 20:50 44.11510 4.98678 40210 ft 446 kts 341°
2026-04-23 20:50 44.17404 4.95925 40211 ft 447 kts 341°
2026-04-23 20:51 44.23278 4.93177 40207 ft 447 kts 341°
2026-04-23 20:51 44.29166 4.90415 40203 ft 446 kts 341°
2026-04-23 20:52 44.34055 4.88117 40181 ft 446 kts 341°
2026-04-23 20:52 44.39960 4.85337 40176 ft 447 kts 341°
2026-04-23 20:53 44.45856 4.82555 40179 ft 447 kts 341°
2026-04-23 20:53 44.51758 4.79764 40181 ft 447 kts 341°
2026-04-23 20:54 44.57794 4.77558 40181 ft 450 kts 348°
2026-04-23 20:54 44.63985 4.76063 40183 ft 451 kts 350°
2026-04-23 20:55 44.70157 4.74710 40185 ft 451 kts 350°
2026-04-23 20:55 44.76368 4.73358 40187 ft 451 kts 350°
2026-04-23 20:56 44.82577 4.71988 40188 ft 451 kts 350°
2026-04-23 20:56 44.88787 4.70605 40190 ft 451 kts 350°
2026-04-23 20:57 44.95005 4.69214 40192 ft 453 kts 350°
2026-04-23 20:57 45.01253 4.67815 40194 ft 455 kts 350°
2026-04-23 20:58 45.07462 4.66421 40198 ft 455 kts 350°
2026-04-23 20:58 45.13725 4.65012 40201 ft 456 kts 351°
2026-04-23 20:59 45.20017 4.63592 40199 ft 458 kts 350°
2026-04-23 20:59 45.26329 4.62155 40202 ft 458 kts 350°
2026-04-23 21:00 45.32592 4.60723 40212 ft 455 kts 350°
2026-04-23 21:00 45.38870 4.59282 40211 ft 457 kts 350°
2026-04-23 21:01 45.45156 4.57838 40209 ft 457 kts 350°
2026-04-23 21:01 45.51411 4.56399 40210 ft 458 kts 350°
2026-04-23 21:02 45.57729 4.54942 40211 ft 461 kts 350°
2026-04-23 21:02 45.64066 4.53477 40212 ft 461 kts 350°
2026-04-23 21:03 45.70406 4.52008 40216 ft 461 kts 351°
2026-04-23 21:03 45.76749 4.50535 40216 ft 462 kts 351°
2026-04-23 21:04 45.83101 4.49056 40216 ft 462 kts 351°
2026-04-23 21:04 45.89460 4.47573 40215 ft 463 kts 351°
2026-04-23 21:05 45.95791 4.46092 40219 ft 465 kts 351°
2026-04-23 21:05 46.02186 4.44593 40218 ft 466 kts 351°
2026-04-23 21:06 46.08602 4.43086 40222 ft 466 kts 351°
2026-04-23 21:06 46.15004 4.41578 40225 ft 467 kts 351°
2026-04-23 21:07 46.21376 4.40074 40221 ft 467 kts 351°
2026-04-23 21:07 46.27792 4.38551 40221 ft 467 kts 349°
2026-04-23 21:08 46.34142 4.36576 40222 ft 467 kts 346°
2026-04-23 21:08 46.40465 4.34286 40221 ft 468 kts 346°
2026-04-23 21:09 46.46783 4.31991 40215 ft 468 kts 346°
2026-04-23 21:09 46.53071 4.29751 40216 ft 469 kts 347°
2026-04-23 21:10 46.59412 4.27512 40217 ft 470 kts 346°
2026-04-23 21:10 46.65767 4.25268 40221 ft 470 kts 346°
2026-04-23 21:11 46.72127 4.23016 40226 ft 470 kts 347°
2026-04-23 21:11 46.78489 4.20755 40227 ft 470 kts 347°
2026-04-23 21:12 46.84806 4.18504 40224 ft 470 kts 346°
2026-04-23 21:12 46.91164 4.16233 40224 ft 470 kts 347°
2026-04-23 21:13 46.97535 4.13953 40227 ft 472 kts 347°
2026-04-23 21:13 47.03930 4.11658 40230 ft 473 kts 347°
2026-04-23 21:14 47.10126 4.08611 40230 ft 472 kts 339°
2026-04-23 21:14 47.16230 4.05088 40230 ft 471 kts 338°
2026-04-23 21:15 47.22316 4.01467 40233 ft 472 kts 338°
2026-04-23 21:15 47.28411 3.97829 40235 ft 472 kts 338°
2026-04-23 21:16 47.34498 3.94201 40239 ft 472 kts 338°
2026-04-23 21:16 47.40603 3.90561 40241 ft 474 kts 338°
2026-04-23 21:17 47.46715 3.86910 40241 ft 474 kts 338°
2026-04-23 21:17 47.52796 3.83268 40238 ft 474 kts 338°
2026-04-23 21:18 47.58918 3.79592 40241 ft 476 kts 338°
2026-04-23 21:18 47.65063 3.75894 40241 ft 476 kts 338°
2026-04-23 21:19 47.71207 3.72188 40244 ft 476 kts 338°
2026-04-23 21:19 47.77360 3.68466 40247 ft 477 kts 338°
2026-04-23 21:20 47.83531 3.64725 40246 ft 479 kts 338°
2026-04-23 21:20 47.89673 3.60991 40246 ft 479 kts 338°
2026-04-23 21:21 47.95855 3.57223 40244 ft 479 kts 338°
2026-04-23 21:21 48.02040 3.53434 40247 ft 481 kts 338°
2026-04-23 21:22 48.08235 3.49622 40249 ft 481 kts 338°
2026-04-23 21:22 48.14432 3.45800 40254 ft 481 kts 338°
2026-04-23 21:23 48.20589 3.41993 40254 ft 482 kts 338°
2026-04-23 21:23 48.26785 3.38151 40257 ft 481 kts 338°
2026-04-23 21:24 48.32979 3.34302 40257 ft 481 kts 338°
2026-04-23 21:24 48.39168 3.30446 40260 ft 481 kts 338°
2026-04-23 21:25 48.45355 3.26545 40257 ft 483 kts 338°
2026-04-23 21:25 48.51505 3.22615 40257 ft 483 kts 338°
2026-04-23 21:26 48.57699 3.18645 40262 ft 483 kts 338°
2026-04-23 21:26 48.63890 3.14671 40266 ft 484 kts 338°
2026-04-23 21:27 48.70084 3.10687 40271 ft 484 kts 337°
2026-04-23 21:27 48.76299 3.06680 40271 ft 484 kts 337°
2026-04-23 21:28 48.82462 3.02693 40278 ft 484 kts 336°
2026-04-23 21:28 48.88425 2.97942 40284 ft 483 kts 331°
2026-04-23 21:29 48.94270 2.92890 40284 ft 483 kts 330°
2026-04-23 21:29 49.00093 2.87764 40284 ft 483 kts 330°
2026-04-23 21:30 49.05874 2.82666 40286 ft 483 kts 330°
2026-04-23 21:30 49.11711 2.77517 40292 ft 485 kts 330°
2026-04-23 21:31 49.17556 2.72353 40293 ft 485 kts 330°
2026-04-23 21:31 49.23403 2.67174 40295 ft 485 kts 330°
2026-04-23 21:32 49.29239 2.61990 40294 ft 484 kts 329°
2026-04-23 21:32 49.35058 2.56807 40299 ft 483 kts 329°
2026-04-23 21:33 49.40837 2.51645 40297 ft 484 kts 329°
2026-04-23 21:33 49.46654 2.46436 40295 ft 484 kts 329°
2026-04-23 21:34 49.52479 2.41234 40296 ft 484 kts 330°
2026-04-23 21:34 49.58391 2.36192 40294 ft 486 kts 331°
2026-04-23 21:35 49.64333 2.31203 40295 ft 486 kts 331°
2026-04-23 21:35 49.70274 2.26185 40299 ft 486 kts 331°
2026-04-23 21:36 49.79111 2.18660 40302 ft 484 kts 330°
2026-04-23 21:37 49.85000 2.13621 40307 ft 484 kts 330°
2026-04-23 21:37 49.90900 2.08559 40314 ft 484 kts 330°
2026-04-23 21:38 49.96791 2.03491 40321 ft 484 kts 330°
2026-04-23 21:38 50.02702 1.98406 40322 ft 486 kts 331°
2026-04-23 21:39 50.08629 1.93338 40325 ft 486 kts 331°
2026-04-23 21:39 50.14514 1.88253 40329 ft 486 kts 329°
2026-04-23 21:40 50.19844 1.81820 40324 ft 485 kts 317°
2026-04-23 21:40 50.21487 1.79462 40153 ft 483 kts 316°
2026-04-23 21:40 50.23923 1.75847 39539 ft 485 kts 315°
2026-04-23 21:40 50.26382 1.72101 38854 ft 488 kts 315°
2026-04-23 21:41 50.28771 1.68419 38175 ft 489 kts 314°
2026-04-23 21:41 50.31187 1.64683 37554 ft 489 kts 314°
2026-04-23 21:41 50.33611 1.60940 36906 ft 490 kts 314°
2026-04-23 21:41 50.36036 1.57173 36249 ft 492 kts 313°
2026-04-23 21:42 50.38471 1.53379 35491 ft 497 kts 313°
2026-04-23 21:42 50.40936 1.49542 34713 ft 502 kts 313°
2026-04-23 21:42 50.43438 1.45658 33827 ft 507 kts 313°
2026-04-23 21:42 50.45960 1.41749 32953 ft 511 kts 313°
2026-04-23 21:43 50.48500 1.37816 32100 ft 514 kts 313°
2026-04-23 21:43 50.50990 1.33766 31202 ft 516 kts 310°
2026-04-23 21:43 50.53442 1.29615 30228 ft 520 kts 310°
2026-04-23 21:43 50.55893 1.25437 29474 ft 517 kts 310°
2026-04-23 21:44 50.58344 1.21335 28863 ft 511 kts 312°
2026-04-23 21:44 50.60832 1.17376 28230 ft 506 kts 313°
2026-04-23 21:44 50.63310 1.13474 27580 ft 501 kts 313°
2026-04-23 21:44 50.65730 1.09659 26945 ft 497 kts 313°
2026-04-23 21:45 50.68164 1.05813 26329 ft 492 kts 313°
2026-04-23 21:45 50.70567 1.02007 25689 ft 487 kts 313°
2026-04-23 21:45 50.72949 0.98224 25065 ft 483 kts 314°
2026-04-23 21:45 50.75309 0.94471 24425 ft 479 kts 314°
2026-04-23 21:46 50.77651 0.90740 23765 ft 476 kts 314°
2026-04-23 21:46 50.79973 0.87036 23074 ft 471 kts 314°
2026-04-23 21:46 50.82264 0.83375 22451 ft 465 kts 314°
2026-04-23 21:46 50.84524 0.79758 21818 ft 459 kts 314°
2026-04-23 21:47 50.86759 0.76176 21208 ft 454 kts 314°
2026-04-23 21:47 50.88936 0.72681 20616 ft 448 kts 314°
2026-04-23 21:47 50.91117 0.69175 20027 ft 443 kts 314°
2026-04-23 21:47 50.93267 0.65713 19433 ft 438 kts 314°
2026-04-23 21:48 50.95394 0.62284 18856 ft 433 kts 314°
2026-04-23 21:48 50.97488 0.58905 18436 ft 424 kts 314°
2026-04-23 21:48 50.99553 0.55566 17596 ft 424 kts 314°
2026-04-23 21:48 51.01612 0.52234 16890 ft 421 kts 314°
2026-04-23 21:49 51.03650 0.48929 16265 ft 416 kts 315°
2026-04-23 21:49 51.05662 0.45665 15640 ft 411 kts 315°
2026-04-23 21:49 51.07679 0.42476 15015 ft 407 kts 316°
2026-04-23 21:49 51.09713 0.39365 14406 ft 403 kts 317°
2026-04-23 21:50 51.11731 0.36294 13745 ft 399 kts 317°
2026-04-23 21:50 51.13704 0.33286 13140 ft 394 kts 317°
2026-04-23 21:50 51.15660 0.30299 12719 ft 384 kts 317°
2026-04-23 21:50 51.17557 0.27395 12353 ft 373 kts 317°
2026-04-23 21:51 51.19412 0.24554 11927 ft 366 kts 318°
2026-04-23 21:51 51.21213 0.21790 11715 ft 352 kts 318°
2026-04-23 21:51 51.22942 0.19132 11545 ft 339 kts 318°
2026-04-23 21:51 51.24607 0.16571 11386 ft 326 kts 318°
2026-04-23 21:52 51.26212 0.14099 11239 ft 315 kts 318°
2026-04-23 21:52 51.27774 0.11693 10936 ft 310 kts 318°
2026-04-23 21:52 51.29327 0.09300 10436 ft 312 kts 319°
2026-04-23 21:52 51.30905 0.06869 9777 ft 318 kts 318°
2026-04-23 21:53 51.32458 0.04314 9165 ft 324 kts 308°
2026-04-23 21:53 51.33302 0.01078 8883 ft 319 kts 281°
2026-04-23 21:53 51.33539 -0.02429 8719 ft 307 kts 274°
2026-04-23 21:53 51.33668 -0.05735 8581 ft 297 kts 274°
2026-04-23 21:54 51.33796 -0.08967 8456 ft 286 kts 274°
2026-04-23 21:54 51.33930 -0.12059 8367 ft 272 kts 274°
2026-04-23 21:54 51.34067 -0.15022 8102 ft 265 kts 275°
2026-04-23 21:54 51.34209 -0.17953 7722 ft 263 kts 275°
2026-04-23 21:55 51.34352 -0.20865 7348 ft 262 kts 275°
2026-04-23 21:55 51.34495 -0.23758 7064 ft 260 kts 275°
2026-04-23 21:55 51.34638 -0.26636 6996 ft 255 kts 275°
2026-04-23 21:55 51.34774 -0.29367 6994 ft 238 kts 275°
2026-04-23 21:56 51.34899 -0.31919 7004 ft 222 kts 275°
2026-04-23 21:56 51.35019 -0.34340 6961 ft 216 kts 275°
2026-04-23 21:56 51.35135 -0.36694 6737 ft 214 kts 275°
2026-04-23 21:56 51.35252 -0.39073 6490 ft 214 kts 275°
2026-04-23 21:57 51.35368 -0.41449 6360 ft 214 kts 275°
2026-04-23 21:57 51.35484 -0.43823 6233 ft 214 kts 274°
2026-04-23 21:57 51.35599 -0.46193 6101 ft 214 kts 274°
2026-04-23 21:57 51.35713 -0.48560 6000 ft 213 kts 274°
2026-04-23 21:58 51.35827 -0.50925 5828 ft 213 kts 274°
2026-04-23 21:58 51.35940 -0.53291 5580 ft 213 kts 274°
2026-04-23 21:58 51.36052 -0.55644 5332 ft 212 kts 274°
2026-04-23 21:58 51.36164 -0.57993 5079 ft 211 kts 274°
2026-04-23 21:59 51.36275 -0.60337 4822 ft 211 kts 274°
2026-04-23 21:59 51.36385 -0.62678 4567 ft 210 kts 274°
2026-04-23 21:59 51.36504 -0.65002 4314 ft 210 kts 275°
2026-04-23 22:00 51.36800 -0.69645 3814 ft 209 kts 275°
2026-04-23 22:00 51.36953 -0.71957 3558 ft 209 kts 275°
2026-04-23 22:00 51.37186 -0.74213 3297 ft 208 kts 286°
2026-04-23 22:00 51.37817 -0.76270 3060 ft 205 kts 310°
2026-04-23 22:01 51.38876 -0.77742 2994 ft 200 kts 335°
2026-04-23 22:01 51.40164 -0.78452 2990 ft 193 kts 355°
2026-04-23 22:01 51.41488 -0.78728 2988 ft 191 kts
2026-04-23 22:01 51.42814 -0.78903 2983 ft 190 kts
2026-04-23 22:02 51.44121 -0.78793 2987 ft 186 kts 16°
2026-04-23 22:02 51.45319 -0.78192 2985 ft 181 kts 31°
2026-04-23 22:02 51.46355 -0.77117 2987 ft 176 kts 45°
2026-04-23 22:02 51.47160 -0.75671 2984 ft 171 kts 66°
2026-04-23 22:03 51.47548 -0.73900 2993 ft 168 kts 81°
2026-04-23 22:03 51.47661 -0.72044 2986 ft 167 kts 89°
2026-04-23 22:03 51.47674 -0.70201 2827 ft 160 kts 91°
2026-04-23 22:03 51.47675 -0.68491 2609 ft 148 kts 91°
2026-04-23 22:04 51.47681 -0.66868 2408 ft 144 kts 90°
2026-04-23 22:04 51.47687 -0.65258 2210 ft 144 kts 90°
2026-04-23 22:04 51.47693 -0.63677 2025 ft 141 kts 90°
2026-04-23 22:04 51.47699 -0.62105 1824 ft 141 kts 89°
2026-04-23 22:05 51.47705 -0.60523 1619 ft 143 kts 89°
2026-04-23 22:05 51.47711 -0.58939 1417 ft 138 kts 89°
2026-04-23 22:05 51.47715 -0.57488 1242 ft 123 kts 88°
2026-04-23 22:05 51.47720 -0.56171 1078 ft 115 kts 88°
2026-04-23 22:06 51.47726 -0.54876 897 ft 117 kts 88°
2026-04-23 22:06 51.47732 -0.53546 758 ft 121 kts 88°
2026-04-23 22:06 51.47739 -0.52216 573 ft 118 kts 89°
2026-04-23 22:06 51.47738 -0.50903 402 ft 119 kts 86°
2026-04-23 22:07 51.47751 -0.49557 254 ft 122 kts 90°
2026-04-23 22:07 51.47748 -0.48178 104 ft 122 kts 87°
2026-04-23 22:07 51.47752 -0.47058 97 ft 73 kts 90°
2026-04-23 22:07 51.47757 -0.46386 100 ft 45 kts 90°
2026-04-23 22:08 51.47692 -0.46132 97 ft 24 kts 143°
2026-04-23 22:08 51.47565 -0.46076 97 ft 17 kts 181°
2026-04-23 22:08 51.47519 -0.45956 96 ft 14 kts 93°
2026-04-23 22:08 51.47514 -0.45777 94 ft 17 kts 95°
2026-04-23 22:09 51.47506 -0.45594 98 ft 16 kts 91°
2026-04-23 22:09 51.47506 -0.45402 96 ft 19 kts 90°
2026-04-23 22:09 51.47505 -0.45185 97 ft 20 kts 90°
2026-04-23 22:09 51.47506 -0.44965 97 ft 21 kts 89°
2026-04-23 22:10 51.47508 -0.44722 97 ft 22 kts 88°
2026-04-23 22:10 51.47504 -0.44477 97 ft 23 kts 89°
2026-04-23 22:10 51.47506 -0.44216 96 ft 24 kts 90°
2026-04-23 22:10 51.47450 -0.44059 98 ft 16 kts 176°
2026-04-23 22:11 51.47315 -0.44061 97 ft 23 kts 181°
2026-04-23 22:11 51.47125 -0.44059 95 ft 31 kts 179°
2026-04-23 22:11 51.46902 -0.44056 96 ft 32 kts 179°
2026-04-23 22:11 51.46669 -0.44057 91 ft 34 kts 180°
2026-04-23 22:12 51.46438 -0.44088 96 ft 30 kts 205°
2026-04-23 22:12 51.46332 -0.44185 99 ft 16 kts 209°
2026-04-23 22:12 51.46256 -0.44239 98 ft 7 kts 203°
2026-04-23 22:12 51.46241 -0.44290 95 ft 7 kts 274°
2026-04-23 22:13 51.46251 -0.44344 95 ft 1 kts 288°
2026-04-23 22:13 51.46256 -0.44371 92 ft 4 kts 288°
2026-04-23 22:13 51.46258 -0.44381 95 ft 0 kts 289°